GW1066 Weather Reports


time (UTC)temp
C
wind
direction
speed
KPH
gust
KPH
rain 1hr
cm
rain 24hr
cm
rain mn
cm
humidity
%
barometer
mb
20260508073303 14 167 1.6 6.4 0.00 0.00 0.00 68 1017.6
20260508073203 14 174 1.6 9.7 0.00 0.00 0.00 68 1017.6
20260508073124 14 178 1.6 9.7 0.00 0.00 0.00 69 1017.6
20260508073003 14 183 1.6 9.7 0.00 0.00 0.00 69 1017.5
20260508072903 14 184 1.6 9.7 0.00 0.00 0.00 69 1017.5
20260508072804 14 184 1.6 9.7 0.00 0.00 0.00 69 1017.5
20260508072703 13 184 1.6 9.7 0.00 0.00 0.00 70 1017.5
20260508072603 13 179 1.6 9.7 0.00 0.00 0.00 70 1017.7
20260508072503 13 177 1.6 9.7 0.00 0.00 0.00 70 1017.6
20260508072403 13 175 1.6 11.3 0.00 0.00 0.00 70 1017.5
20260508072307 13 176 1.6 11.3 0.00 0.00 0.00 70 1017.7
20260508072203 13 171 1.6 11.3 0.00 0.00 0.00 69 1017.5
20260508072103 13 171 1.6 11.3 0.00 0.00 0.00 70 1017.6
20260508072003 13 166 1.6 11.3 0.00 0.00 0.00 70 1017.6
20260508071903 13 164 0.0 11.3 0.00 0.00 0.00 70 1017.5
20260508071803 13 164 1.6 11.3 0.00 0.00 0.00 70 1017.5
20260508071703 13 167 1.6 11.3 0.00 0.00 0.00 70 1017.6
20260508071603 13 168 1.6 11.3 0.00 0.00 0.00 70 1017.6
20260508071503 13 168 1.6 11.3 0.00 0.00 0.00 70 1017.4
20260508071404 13 173 0.0 4.8 0.00 0.00 0.00 70 1017.4
20260508071303 13 173 0.0 4.8 0.00 0.00 0.00 70 1017.4
20260508071203 13 172 0.0 4.8 0.00 0.00 0.00 70 1017.5
20260508071103 13 177 0.0 9.7 0.00 0.00 0.00 70 1017.4
20260508071024 13 176 0.0 9.7 0.00 0.00 0.00 70 1017.5
20260508070903 13 177 0.0 9.7 0.00 0.00 0.00 71 1017.6
20260508070803 13 178 0.0 9.7 0.00 0.00 0.00 71 1017.4
20260508070724 13 178 0.0 9.7 0.00 0.00 0.00 70 1017.5
20260508070603 13 173 0.0 9.7 0.00 0.00 0.00 71 1017.5
20260508070503 13 179 1.6 9.7 0.00 0.00 0.00 71 1017.5
20260508070403 13 186 1.6 9.7 0.00 0.00 0.00 71 1017.5
20260508070303 13 185 1.6 9.7 0.00 0.00 0.00 71 1017.6
20260508070224 13 186 1.6 9.7 0.00 0.00 0.00 71 1017.5
20260508070004 13 184 1.6 9.7 0.00 0.00 0.00 71 1017.3
20260508065903 13 182 1.6 9.7 0.00 0.00 0.00 72 1017.2
20260508065824 13 183 1.6 9.7 0.00 0.00 0.00 72 1017.4
20260508065724 13 183 1.6 9.7 0.00 0.00 0.00 72 1017.2
20260508065603 13 185 1.6 9.7 0.00 0.00 0.00 72 1017.4
20260508065503 13 180 0.0 6.4 0.00 0.00 0.00 71 1017.6
20260508065403 13 173 0.0 4.8 0.00 0.00 0.00 72 1017.4
20260508065306 13 175 1.6 6.4 0.00 0.00 0.00 72 1017.0
20260508065203 13 173 1.6 6.4 0.00 0.00 0.00 72 1017.4
20260508065124 13 172 1.6 6.4 0.00 0.00 0.00 71 1017.3
20260508065003 12 173 1.6 6.4 0.00 0.00 0.00 72 1017.3
20260508064924 12 170 1.6 6.4 0.00 0.00 0.00 72 1017.3
20260508064803 12 168 1.6 6.4 0.00 0.00 0.00 72 1017.1
20260508064703 12 169 1.6 6.4 0.00 0.00 0.00 72 1017.1
20260508064603 12 168 1.6 6.4 0.00 0.00 0.00 72 1017.1
20260508064504 12 166 1.6 6.4 0.00 0.00 0.00 72 1017.2
20260508064403 12 166 1.6 6.4 0.00 0.00 0.00 72 1017.5
20260508064303 12 162 0.0 4.8 0.00 0.00 0.00 72 1017.4
20260508064203 12 162 0.0 4.8 0.00 0.00 0.00 72 1017.4
20260508064103 12 160 0.0 4.8 0.00 0.00 0.00 73 1017.2
20260508064025 12 161 1.6 6.4 0.00 0.00 0.00 73 1017.3
20260508063924 12 164 1.6 6.4 0.00 0.00 0.00 73 1017.2
20260508063803 12 165 1.6 6.4 0.00 0.00 0.00 73 1017.2
20260508063703 12 165 1.6 6.4 0.00 0.00 0.00 73 1017.5
20260508063603 12 162 1.6 6.4 0.00 0.00 0.00 73 1017.4
20260508063503 12 162 1.6 6.4 0.00 0.00 0.00 73 1017.4
20260508063403 12 162 1.6 6.4 0.00 0.00 0.00 73 1017.4
20260508063303 12 163 1.6 6.4 0.00 0.00 0.00 73 1017.1
20260508063224 12 163 1.6 6.4 0.00 0.00 0.00 73 1017.4
20260508063124 12 164 1.6 6.4 0.00 0.00 0.00 73 1017.4
20260508063024 12 167 1.6 6.4 0.00 0.00 0.00 73 1017.3
20260508062903 12 176 1.6 9.7 0.00 0.00 0.00 73 1017.3
20260508062803 12 178 1.6 9.7 0.00 0.00 0.00 74 1017.4
20260508062703 12 177 1.6 9.7 0.00 0.00 0.00 73 1017.6
20260508062624 12 181 1.6 9.7 0.00 0.00 0.00 74 1017.4
20260508062503 12 184 1.6 9.7 0.00 0.00 0.00 74 1017.2
20260508062424 12 185 1.6 9.7 0.00 0.00 0.00 74 1017.4
20260508062306 12 191 1.6 9.7 0.00 0.00 0.00 74 1017.3
20260508062203 12 188 1.6 9.7 0.00 0.00 0.00 74 1017.2
20260508062103 12 204 1.6 9.7 0.00 0.00 0.00 74 1017.4
20260508062003 12 191 1.6 9.7 0.00 0.00 0.00 74 1017.2
20260508061903 12 179 0.0 9.7 0.00 0.00 0.00 74 1017.2
20260508061803 12 175 1.6 9.7 0.00 0.00 0.00 74 1017.5
20260508061703 11 174 1.6 9.7 0.00 0.00 0.00 75 1017.3
20260508061624 11 174 1.6 9.7 0.00 0.00 0.00 75 1017.3
20260508061503 11 174 1.6 9.7 0.00 0.00 0.00 75 1017.3
20260508061403 11 173 0.0 9.7 0.00 0.00 0.00 75 1017.5
20260508061303 11 173 0.0 9.7 0.00 0.00 0.00 75 1017.5
20260508061203 11 174 0.0 9.7 0.00 0.00 0.00 75 1017.4
20260508061103 11 175 0.0 9.7 0.00 0.00 0.00 75 1017.4
20260508061024 11 175 0.0 9.7 0.00 0.00 0.00 75 1017.3
20260508060903 11 179 1.6 9.7 0.00 0.00 0.00 75 1017.3
20260508060803 11 180 0.0 9.7 0.00 0.00 0.00 75 1017.5
20260508060703 11 181 0.0 9.7 0.00 0.00 0.00 75 1017.4
20260508060624 11 180 0.0 9.7 0.00 0.00 0.00 75 1017.3
20260508060503 11 180 0.0 9.7 0.00 0.00 0.00 75 1017.2
20260508060403 11 180 1.6 9.7 0.00 0.00 0.00 75 1017.6
20260508060324 11 180 1.6 9.7 0.00 0.00 0.00 75 1017.3
20260508060224 11 180 1.6 9.7 0.00 0.00 0.00 76 1017.5
20260508060003 11 175 0.0 4.8 0.00 0.00 0.00 75 1017.6
20260508055904 11 170 0.0 4.8 0.00 0.00 0.00 75 1017.4
20260508055824 11 170 0.0 4.8 0.00 0.00 0.00 75 1017.4
20260508055703 11 180 0.0 4.8 0.00 0.00 0.00 75 1017.4
20260508055603 11 182 0.0 4.8 0.00 0.00 0.00 76 1017.5
20260508055503 11 182 0.0 4.8 0.00 0.00 0.00 76 1017.2
20260508055424 11 184 1.6 6.4 0.00 0.00 0.00 75 1017.3
20260508055306 11 186 1.6 6.4 0.00 0.00 0.00 76 1017.2
20260508055203 11 187 1.6 6.4 0.00 0.00 0.00 76 1017.4
20260508055103 11 182 1.6 9.7 0.00 0.00 0.00 76 1017.4
20260508055003 11 185 1.6 9.7 0.00 0.00 0.00 76 1017.2
20260508054903 11 187 1.6 9.7 0.00 0.00 0.00 76 1017.2
20260508054803 11 186 1.6 9.7 0.00 0.00 0.00 76 1017.2
20260508054703 11 186 1.6 9.7 0.00 0.00 0.00 76 1017.4
20260508054603 11 184 1.6 9.7 0.00 0.00 0.00 76 1017.2
20260508054503 11 187 1.6 9.7 0.00 0.00 0.00 76 1017.3
20260508054403 11 185 1.6 9.7 0.00 0.00 0.00 75 1017.2
20260508054303 11 184 1.6 9.7 0.00 0.00 0.00 75 1017.4
20260508054203 11 183 1.6 9.7 0.00 0.00 0.00 75 1017.2
20260508054103 11 189 0.0 9.7 0.00 0.00 0.00 76 1017.2
20260508054003 11 187 0.0 9.7 0.00 0.00 0.00 76 1017.2
20260508053903 11 178 0.0 9.7 0.00 0.00 0.00 75 1017.4
20260508053803 11 176 0.0 9.7 0.00 0.00 0.00 75 1017.4
20260508053724 11 176 0.0 9.7 0.00 0.00 0.00 76 1017.2
20260508053603 11 177 0.0 9.7 0.00 0.00 0.00 75 1017.2
20260508053503 11 167 0.0 4.8 0.00 0.00 0.00 75 1017.3
20260508053403 11 166 0.0 4.8 0.00 0.00 0.00 75 1017.2
20260508053303 11 164 0.0 4.8 0.00 0.00 0.00 75 1017.2
20260508053203 11 165 0.0 4.8 0.00 0.00 0.00 76 1017.3
20260508053103 11 170 0.0 4.8 0.00 0.00 0.00 75 1017.3
20260508053003 11 173 0.0 4.8 0.00 0.00 0.00 76 1017.3
20260508052903 11 176 0.0 4.8 0.00 0.00 0.00 76 1017.2
20260508052803 11 179 0.0 4.8 0.00 0.00 0.00 75 1017.0
20260508052703 11 177 0.0 4.8 0.00 0.00 0.00 76 1017.2
20260508052603 11 176 0.0 4.8 0.00 0.00 0.00 76 1017.0
20260508052503 11 176 0.0 4.8 0.00 0.00 0.00 76 1017.3
20260508052403 11 180 1.6 4.8 0.00 0.00 0.00 76 1017.2
20260508052306 11 179 1.6 4.8 0.00 0.00 0.00 76 1017.1
20260508052203 11 179 1.6 4.8 0.00 0.00 0.00 76 1017.3
20260508052103 11 176 1.6 4.8 0.00 0.00 0.00 76 1017.4
20260508052003 11 172 1.6 9.7 0.00 0.00 0.00 76 1017.2
20260508051903 11 172 1.6 9.7 0.00 0.00 0.00 76 1017.3
20260508051803 11 171 1.6 9.7 0.00 0.00 0.00 76 1017.2
20260508051703 11 174 1.6 9.7 0.00 0.00 0.00 76 1017.2
20260508051603 11 174 1.6 9.7 0.00 0.00 0.00 76 1017.2
20260508051503 11 173 1.6 9.7 0.00 0.00 0.00 76 1017.3
20260508051424 11 172 1.6 9.7 0.00 0.00 0.00 76 1017.3
20260508051324 11 174 1.6 9.7 0.00 0.00 0.00 76 1017.3
20260508051203 11 176 1.6 9.7 0.00 0.00 0.00 76 1017.2
20260508051124 11 177 1.6 9.7 0.00 0.00 0.00 76 1017.3
20260508051003 11 180 1.6 9.7 0.00 0.00 0.00 75 1017.3
20260508050903 11 182 1.6 9.7 0.00 0.00 0.00 76 1017.2
20260508050803 11 185 1.6 9.7 0.00 0.00 0.00 75 1017.4
20260508050703 11 185 0.0 9.7 0.00 0.00 0.00 75 1017.2
20260508050603 11 181 1.6 9.7 0.00 0.00 0.00 75 1017.2
20260508050524 11 182 1.6 9.7 0.00 0.00 0.00 76 1017.2
20260508050403 11 180 1.6 9.7 0.00 0.00 0.00 76 1017.1
20260508050303 11 179 1.6 9.7 0.00 0.00 0.00 76 1017.3
20260508050203 11 181 1.6 9.7 0.00 0.00 0.00 76 1017.4
20260508050103 11 180 1.6 6.4 0.00 0.00 0.00 77 1017.3
20260508050003 11 179 1.6 6.4 0.00 0.00 0.00 77 1017.3
20260508045903 11 178 1.6 6.4 0.00 0.00 0.00 77 1017.3
20260508045803 11 175 1.6 6.4 0.00 0.00 0.00 77 1017.2
20260508045703 11 173 1.6 6.4 0.00 0.00 0.00 77 1017.2
20260508045603 11 176 1.6 6.4 0.00 0.00 0.00 77 1017.4
20260508045503 11 173 1.6 6.4 0.00 0.00 0.00 77 1017.2
20260508045403 11 174 0.0 6.4 0.00 0.00 0.00 77 1017.2
20260508045306 10 174 0.0 6.4 0.00 0.00 0.00 77 1017.1
20260508045203 10 166 0.0 4.8 0.00 0.00 0.00 77 1017.3
20260508045103 10 170 0.0 4.8 0.00 0.00 0.00 77 1017.2
20260508045003 10 178 0.0 4.8 0.00 0.00 0.00 77 1017.3
20260508044903 10 189 0.0 4.8 0.00 0.00 0.00 77 1017.1
20260508044803 10 190 0.0 4.8 0.00 0.00 0.00 77 1017.4
20260508044724 10 191 0.0 4.8 0.00 0.00 0.00 77 1017.2
20260508044624 10 197 0.0 4.8 0.00 0.00 0.00 77 1017.1
20260508044503 10 193 0.0 4.8 0.00 0.00 0.00 77 1017.3
20260508044403 10 189 0.0 4.8 0.00 0.00 0.00 77 1017.4
20260508044303 10 188 0.0 4.8 0.00 0.00 0.00 78 1017.0
20260508044224 10 188 0.0 4.8 0.00 0.00 0.00 77 1017.0
20260508044103 10 188 0.0 4.8 0.00 0.00 0.00 77 1017.0
20260508044004 10 181 0.0 3.2 0.00 0.00 0.00 77 1017.1
20260508043903 10 174 0.0 3.2 0.00 0.00 0.00 77 1017.2
20260508043806 10 172 0.0 4.8 0.00 0.00 0.00 77 1017.1
20260508043703 10 173 0.0 4.8 0.00 0.00 0.00 77 1017.0
20260508043603 10 172 1.6 11.3 0.00 0.00 0.00 77 1017.2
20260508043503 10 171 1.6 11.3 0.00 0.00 0.00 77 1017.2
20260508043403 10 171 0.0 11.3 0.00 0.00 0.00 77 1017.2
20260508043303 10 172 0.0 11.3 0.00 0.00 0.00 77 1017.0
20260508043203 10 171 0.0 11.3 0.00 0.00 0.00 77 1016.9
20260508043103 10 171 0.0 11.3 0.00 0.00 0.00 77 1017.1
20260508043003 10 172 0.0 11.3 0.00 0.00 0.00 77 1017.1
20260508042903 10 175 1.6 11.3 0.00 0.00 0.00 77 1017.1
20260508042803 10 174 0.0 11.3 0.00 0.00 0.00 77 1017.0
20260508042703 10 173 0.0 11.3 0.00 0.00 0.00 77 1017.1
20260508042624 10 172 0.0 11.3 0.00 0.00 0.00 76 1016.9
20260508042503 10 179 0.0 4.8 0.00 0.00 0.00 77 1017.0
20260508042403 10 175 0.0 4.8 0.00 0.00 0.00 77 1017.0
20260508042306 10 170 0.0 4.8 0.00 0.00 0.00 77 1017.0
20260508042203 10 170 0.0 4.8 0.00 0.00 0.00 77 1017.0
20260508042103 10 170 0.0 4.8 0.00 0.00 0.00 77 1016.9
20260508042003 10 170 0.0 4.8 0.00 0.00 0.00 77 1016.9
20260508041903 10 165 0.0 4.8 0.00 0.00 0.00 77 1016.9
20260508041824 10 165 0.0 4.8 0.00 0.00 0.00 77 1016.9
20260508041703 10 165 0.0 4.8 0.00 0.00 0.00 77 1016.8
20260508041603 10 165 0.0 4.8 0.00 0.00 0.00 78 1016.8
20260508041504 10 165 0.0 4.8 0.00 0.00 0.00 77 1017.0
20260508041403 10 166 0.0 4.8 0.00 0.00 0.00 77 1017.0
20260508041303 10 172 0.0 4.8 0.00 0.00 0.00 77 1016.9
20260508041203 10 172 0.0 4.8 0.00 0.00 0.00 78 1017.2
20260508041103 10 172 0.0 4.8 0.00 0.00 0.00 78 1016.9
20260508041003 10 173 0.0 4.8 0.00 0.00 0.00 78 1016.9
20260508040903 10 176 0.0 4.8 0.00 0.00 0.00 78 1016.9
20260508040803 10 174 0.0 4.8 0.00 0.00 0.00 78 1017.0
20260508040703 10 173 0.0 4.8 0.00 0.00 0.00 78 1016.9
20260508040603 10 172 0.0 4.8 0.00 0.00 0.00 78 1016.8
20260508040503 10 169 0.0 4.8 0.00 0.00 0.00 78 1016.9
20260508040403 10 167 0.0 4.8 0.00 0.00 0.00 78 1016.9
20260508040303 10 167 0.0 4.8 0.00 0.00 0.00 78 1017.0
20260508040203 10 167 0.0 4.8 0.00 0.00 0.00 78 1016.8
20260508040003 10 166 0.0 4.8 0.00 0.00 0.00 78 1016.9
20260508035903 10 163 0.0 4.8 0.00 0.00 0.00 78 1017.0
20260508035803 10 161 0.0 4.8 0.00 0.00 0.00 78 1016.7
20260508035703 10 159 0.0 3.2 0.00 0.00 0.00 78 1016.8
20260508035603 10 159 0.0 3.2 0.00 0.00 0.00 78 1016.8
20260508035503 10 161 0.0 3.2 0.00 0.00 0.00 78 1016.9
20260508035403 10 164 0.0 3.2 0.00 0.00 0.00 78 1016.9
20260508035324 10 166 0.0 9.7 0.00 0.00 0.00 78 1016.5
20260508035203 10 169 0.0 9.7 0.00 0.00 0.00 78 1016.9
20260508035103 10 169 0.0 9.7 0.00 0.00 0.00 78 1016.8
20260508035003 10 171 0.0 9.7 0.00 0.00 0.00 78 1016.9
20260508034903 10 171 0.0 9.7 0.00 0.00 0.00 78 1016.8
20260508034803 10 171 0.0 9.7 0.00 0.00 0.00 78 1016.7
20260508034703 10 173 0.0 9.7 0.00 0.00 0.00 78 1016.4
20260508034603 10 170 0.0 9.7 0.00 0.00 0.00 78 1016.7
20260508034503 10 170 0.0 9.7 0.00 0.00 0.00 78 1016.8
20260508034403 10 170 0.0 9.7 0.00 0.00 0.00 78 1016.7
20260508034324 10 171 0.0 3.2 0.00 0.00 0.00 78 1016.7
20260508034203 10 164 0.0 3.2 0.00 0.00 0.00 78 1016.9
20260508034103 10 164 0.0 3.2 0.00 0.00 0.00 78 1016.8
20260508034025 10 164 0.0 3.2 0.00 0.00 0.00 78 1016.7
20260508033924 10 162 0.0 3.2 0.00 0.00 0.00 78 1016.7
20260508033803 10 162 0.0 3.2 0.00 0.00 0.00 78 1016.8
20260508033703 10 156 0.0 3.2 0.00 0.00 0.00 78 1016.9
20260508033603 10 150 0.0 1.6 0.00 0.00 0.00 78 1016.6
20260508033503 10 150 0.0 1.6 0.00 0.00 0.00 78 1016.6
20260508033403 10 157 0.0 1.6 0.00 0.00 0.00 78 1016.6
20260508033303 10 168 0.0 1.6 0.00 0.00 0.00 78 1016.7
20260508033203 10 173 0.0 1.6 0.00 0.00 0.00 78 1016.6
20260508033103 10 173 0.0 1.6 0.00 0.00 0.00 78 1016.7
20260508033003 10 181 0.0 1.6 0.00 0.00 0.00 78 1016.8
20260508032903 10 181 0.0 1.6 0.00 0.00 0.00 78 1016.8
20260508032803 10 181 0.0 1.6 0.00 0.00 0.00 78 1016.6
20260508032703 10 181 0.0 1.6 0.00 0.00 0.00 78 1016.9
20260508032603 10 173 0.0 3.2 0.00 0.00 0.00 78 1016.7
20260508032503 10 172 0.0 3.2 0.00 0.00 0.00 78 1016.8
20260508032403 10 174 0.0 3.2 0.00 0.00 0.00 78 1016.7
20260508032324 10 172 0.0 3.2 0.00 0.00 0.00 78 1016.6
20260508032203 10 169 0.0 3.2 0.00 0.00 0.00 78 1016.9
20260508032103 10 171 0.0 3.2 0.00 0.00 0.00 78 1016.9
20260508032003 10 170 0.0 3.2 0.00 0.00 0.00 78 1016.7
20260508031924 10 170 0.0 3.2 0.00 0.00 0.00 78 1016.7
20260508031803 10 170 0.0 3.2 0.00 0.00 0.00 78 1016.8
20260508031703 10 170 0.0 3.2 0.00 0.00 0.00 78 1016.8
20260508031624 10 173 0.0 3.2 0.00 0.00 0.00 78 1016.9
20260508031503 10 174 0.0 3.2 0.00 0.00 0.00 78 1016.7
20260508031403 10 170 0.0 3.2 0.00 0.00 0.00 78 1016.7
20260508031303 10 184 0.0 3.2 0.00 0.00 0.00 78 1016.7
20260508031203 10 184 0.0 3.2 0.00 0.00 0.00 78 1016.9
20260508031103 10 181 0.0 3.2 0.00 0.00 0.00 78 1016.8
20260508031003 10 170 0.0 3.2 0.00 0.00 0.00 78 1016.5
20260508030903 10 168 0.0 3.2 0.00 0.00 0.00 78 1016.8
20260508030803 10 168 0.0 3.2 0.00 0.00 0.00 78 1016.7
20260508030703 10 168 0.0 3.2 0.00 0.00 0.00 78 1016.7
20260508030603 10 169 0.0 3.2 0.00 0.00 0.00 78 1016.5
20260508030503 10 169 0.0 3.2 0.00 0.00 0.00 78 1016.5
20260508030424 10 169 0.0 3.2 0.00 0.00 0.00 78 1016.6
20260508030303 10 165 0.0 3.2 0.00 0.00 0.00 78 1016.5
20260508030203 10 165 0.0 3.2 0.00 0.00 0.00 78 1016.3
20260508030103 10 166 0.0 3.2 0.00 0.00 0.00 78 1016.4
20260508030004 10 169 0.0 3.2 0.00 0.00 0.00 78 1016.4
20260508025903 10 170 0.0 3.2 0.00 0.00 0.00 78 1016.4
20260508025824 10 172 0.0 3.2 0.00 0.00 0.00 78 1016.4
20260508025703 10 173 0.0 3.2 0.00 0.00 0.00 78 1016.4
20260508025603 9 171 0.0 1.6 0.00 0.00 0.00 78 1016.5
20260508025503 9 169 0.0 1.6 0.00 0.00 0.00 78 1016.5
20260508025403 9 169 0.0 1.6 0.00 0.00 0.00 78 1016.4
20260508025306 9 169 0.0 1.6 0.00 0.00 0.00 78 1016.5
20260508025203 9 164 0.0 1.6 0.00 0.00 0.00 78 1016.6
20260508025103 9 164 0.0 1.6 0.00 0.00 0.00 78 1016.6
20260508025003 9 161 0.0 1.6 0.00 0.00 0.00 78 1016.5
20260508024903 9 161 0.0 1.6 0.00 0.00 0.00 78 1016.5
20260508024803 9 161 0.0 1.6 0.00 0.00 0.00 78 1016.4
20260508024724 9 161 0.0 1.6 0.00 0.00 0.00 78 1016.4
20260508024603 9 161 0.0 1.6 0.00 0.00 0.00 78 1016.6
20260508024524 9 158 0.0 1.6 0.00 0.00 0.00 78 1016.3
20260508024424 9 160 0.0 3.2 0.00 0.00 0.00 78 1016.4
20260508024324 9 164 0.0 3.2 0.00 0.00 0.00 78 1016.4
20260508024203 9 169 0.0 3.2 0.00 0.00 0.00 78 1016.6
20260508024103 9 169 0.0 3.2 0.00 0.00 0.00 78 1016.3
20260508024003 9 169 0.0 3.2 0.00 0.00 0.00 78 1016.3
20260508023903 9 169 0.0 3.2 0.00 0.00 0.00 78 1016.4
20260508023824 9 169 0.0 3.2 0.00 0.00 0.00 78 1016.4
20260508023724 9 169 0.0 3.2 0.00 0.00 0.00 78 1016.2
20260508023603 9 169 0.0 3.2 0.00 0.00 0.00 78 1016.5
20260508023503 9 171 0.0 1.6 0.00 0.00 0.00 78 1016.3
20260508023403 9 171 0.0 1.6 0.00 0.00 0.00 78 1016.4
20260508023303 9 168 0.0 1.6 0.00 0.00 0.00 79 1016.2
20260508023203 9 168 0.0 1.6 0.00 0.00 0.00 79 1016.5
20260508023103 9 168 0.0 1.6 0.00 0.00 0.00 79 1016.3
20260508023004 9 0 0.0 0.0 0.00 0.00 0.00 79 1016.4
20260508022903 9 0 0.0 0.0 0.00 0.00 0.00 79 1016.4
20260508022824 9 0 0.0 0.0 0.00 0.00 0.00 79 1016.2
20260508022703 9 178 0.0 3.2 0.00 0.00 0.00 79 1016.4
20260508022603 9 178 0.0 3.2 0.00 0.00 0.00 79 1016.4
20260508022503 9 178 0.0 3.2 0.00 0.00 0.00 79 1016.6
20260508022403 9 174 0.0 4.8 0.00 0.00 0.00 79 1016.3
20260508022306 9 174 0.0 4.8 0.00 0.00 0.00 79 1016.4
20260508022203 9 174 0.0 4.8 0.00 0.00 0.00 79 1016.5
20260508022103 9 174 0.0 4.8 0.00 0.00 0.00 79 1016.3
20260508022003 9 174 0.0 4.8 0.00 0.00 0.00 79 1016.5
20260508021924 9 174 0.0 4.8 0.00 0.00 0.00 79 1016.4
20260508021803 9 176 0.0 4.8 0.00 0.00 0.00 79 1016.6
20260508021724 9 175 0.0 4.8 0.00 0.00 0.00 79 1016.6
20260508021603 9 175 0.0 4.8 0.00 0.00 0.00 79 1016.3
20260508021524 9 175 0.0 4.8 0.00 0.00 0.00 79 1016.5
20260508021404 9 178 0.0 3.2 0.00 0.00 0.00 79 1016.5
20260508021303 9 180 0.0 3.2 0.00 0.00 0.00 79 1016.4
20260508021224 9 169 0.0 3.2 0.00 0.00 0.00 79 1016.4
20260508021103 10 168 0.0 3.2 0.00 0.00 0.00 79 1016.2
20260508021003 10 169 0.0 3.2 0.00 0.00 0.00 79 1016.5
20260508020903 10 169 0.0 3.2 0.00 0.00 0.00 79 1016.2
20260508020824 10 167 0.0 3.2 0.00 0.00 0.00 79 1016.4
20260508020703 10 163 0.0 3.2 0.00 0.00 0.00 79 1016.3
20260508020603 10 163 0.0 3.2 0.00 0.00 0.00 79 1016.4
20260508020503 10 163 0.0 3.2 0.00 0.00 0.00 79 1016.3
20260508020403 10 165 0.0 3.2 0.00 0.00 0.00 79 1016.5
20260508020324 10 165 0.0 3.2 0.00 0.00 0.00 79 1016.5
20260508020203 10 167 0.0 3.2 0.00 0.00 0.00 79 1016.4
20260508020103 10 166 0.0 4.8 0.00 0.00 0.00 79 1016.4
20260508020003 10 165 0.0 4.8 0.00 0.00 0.00 79 1016.3
20260508015903 10 164 0.0 4.8 0.00 0.00 0.00 79 1016.5
20260508015824 10 164 0.0 4.8 0.00 0.00 0.00 79 1016.5
20260508015703 10 165 0.0 4.8 0.00 0.00 0.00 79 1016.6
20260508015603 10 166 0.0 4.8 0.00 0.00 0.00 78 1016.4
20260508015524 10 166 0.0 4.8 0.00 0.00 0.00 79 1016.7
20260508015403 10 170 0.0 4.8 0.00 0.00 0.00 79 1016.7
20260508015305 10 168 0.0 4.8 0.00 0.00 0.00 79 1016.4
20260508015203 10 170 0.0 4.8 0.00 0.00 0.00 79 1016.4
20260508015103 10 171 0.0 4.8 0.00 0.00 0.00 79 1016.5
20260508015003 10 170 0.0 4.8 0.00 0.00 0.00 79 1016.5
20260508014903 10 170 0.0 4.8 0.00 0.00 0.00 79 1016.7
20260508014803 10 169 0.0 4.8 0.00 0.00 0.00 79 1016.4
20260508014703 10 170 0.0 4.8 0.00 0.00 0.00 79 1016.5
20260508014624 10 170 0.0 4.8 0.00 0.00 0.00 79 1016.6
20260508014503 10 170 0.0 4.8 0.00 0.00 0.00 79 1016.8
20260508014403 10 166 0.0 4.8 0.00 0.00 0.00 79 1016.6
20260508014324 10 168 0.0 4.8 0.00 0.00 0.00 79 1016.6
20260508014203 10 169 0.0 4.8 0.00 0.00 0.00 79 1016.6
20260508014103 10 168 0.0 4.8 0.00 0.00 0.00 79 1016.7
20260508014003 10 169 0.0 4.8 0.00 0.00 0.00 79 1016.4
20260508013903 10 171 0.0 3.2 0.00 0.00 0.00 79 1016.6
20260508013824 10 172 0.0 3.2 0.00 0.00 0.00 79 1016.7
20260508013703 10 171 0.0 3.2 0.00 0.00 0.00 79 1016.7
20260508013603 10 171 0.0 3.2 0.00 0.00 0.00 79 1016.8
20260508013503 10 171 0.0 3.2 0.00 0.00 0.00 79 1016.6
20260508013403 10 176 0.0 3.2 0.00 0.00 0.00 79 1016.7
20260508013303 10 173 0.0 3.2 0.00 0.00 0.00 79 1016.7
20260508013204 10 173 0.0 3.2 0.00 0.00 0.00 79 1016.7
20260508013124 10 173 0.0 3.2 0.00 0.00 0.00 79 1016.5
20260508013003 10 173 0.0 3.2 0.00 0.00 0.00 79 1016.8
20260508012903 10 173 0.0 3.2 0.00 0.00 0.00 79 1016.4
20260508012803 10 0 0.0 0.0 0.00 0.00 0.00 79 1016.7
20260508012703 10 0 0.0 0.0 0.00 0.00 0.00 79 1016.6
20260508012603 10 0 0.0 0.0 0.00 0.00 0.00 79 1016.5
20260508012504 10 0 0.0 0.0 0.00 0.00 0.00 79 1016.9
20260508012403 10 0 0.0 0.0 0.00 0.00 0.00 79 1016.7
20260508012307 10 158 0.0 4.8 0.00 0.00 0.00 79 1016.8
20260508012203 10 163 0.0 4.8 0.00 0.00 0.00 79 1016.7
20260508012124 10 163 0.0 4.8 0.00 0.00 0.00 79 1016.8
20260508012003 10 163 0.0 4.8 0.00 0.00 0.00 79 1016.8
20260508011903 10 163 0.0 4.8 0.00 0.00 0.00 79 1016.6
20260508011803 10 163 0.0 4.8 0.00 0.00 0.00 79 1016.7
20260508011703 10 163 0.0 4.8 0.00 0.00 0.00 79 1016.8
20260508011603 10 163 0.0 4.8 0.00 0.00 0.00 79 1016.9
20260508011503 10 163 0.0 4.8 0.00 0.00 0.00 79 1016.6
20260508011403 10 163 0.0 4.8 0.00 0.00 0.00 79 1016.8
20260508011303 10 180 0.0 1.6 0.00 0.00 0.00 79 1016.7
20260508011224 10 0 0.0 0.0 0.00 0.00 0.00 79 1016.9
20260508011103 9 0 0.0 0.0 0.00 0.00 0.00 79 1016.8
20260508011003 9 0 0.0 0.0 0.00 0.00 0.00 79 1016.8
20260508010903 9 0 0.0 0.0 0.00 0.00 0.00 80 1016.9
20260508010803 9 0 0.0 0.0 0.00 0.00 0.00 80 1016.7
20260508010703 9 0 0.0 0.0 0.00 0.00 0.00 79 1016.8
20260508010603 9 0 0.0 0.0 0.00 0.00 0.00 79 1016.7
20260508010503 9 0 0.0 0.0 0.00 0.00 0.00 79 1016.8
20260508010403 10 0 0.0 0.0 0.00 0.00 0.00 79 1017.0
20260508010303 10 0 0.0 0.0 0.00 0.00 0.00 79 1016.8
20260508010203 10 0 0.0 0.0 0.00 0.00 0.00 79 1016.8
20260508010024 10 0 0.0 0.0 0.00 0.00 0.00 79 1017.0
20260508005903 10 0 0.0 0.0 0.00 0.00 0.00 79 1016.7
20260508005825 9 0 0.0 0.0 0.00 0.00 0.00 79 1016.7
20260508005703 9 0 0.0 0.0 0.00 0.00 0.00 79 1016.7
20260508005603 9 0 0.0 0.0 0.00 0.00 0.00 80 1016.8
20260508005503 9 133 0.0 1.6 0.00 0.00 0.00 80 1016.8
20260508005403 9 123 0.0 1.6 0.00 0.00 0.00 79 1016.8
20260508005324 9 123 0.0 1.6 0.00 0.00 0.00 79 1016.7
20260508005203 9 123 0.0 1.6 0.00 0.00 0.00 79 1016.8
20260508005104 9 123 0.0 1.6 0.00 0.00 0.00 79 1016.8
20260508005024 9 123 0.0 1.6 0.00 0.00 0.00 79 1016.9
20260508004903 9 123 0.0 1.6 0.00 0.00 0.00 79 1017.0
20260508004804 10 123 0.0 1.6 0.00 0.00 0.00 79 1016.8
20260508004704 10 123 0.0 1.6 0.00 0.00 0.00 79 1016.8
20260508004604 10 123 0.0 1.6 0.00 0.00 0.00 79 1017.0
20260508004504 10 106 0.0 1.6 0.00 0.00 0.00 79 1016.9
20260508004404 10 0 0.0 0.0 0.00 0.00 0.00 79 1016.9
20260508004304 10 0 0.0 0.0 0.00 0.00 0.00 79 1016.7
20260508004204 10 0 0.0 0.0 0.00 0.00 0.00 79 1016.8
20260508004104 10 0 0.0 0.0 0.00 0.00 0.00 79 1016.8
20260508004025 10 0 0.0 0.0 0.00 0.00 0.00 79 1016.9
20260508003904 10 0 0.0 0.0 0.00 0.00 0.00 79 1016.9
20260508003804 10 0 0.0 0.0 0.00 0.00 0.00 79 1017.1
20260508003725 10 0 0.0 0.0 0.00 0.00 0.00 79 1016.4
20260508003604 10 0 0.0 0.0 0.00 0.00 0.00 79 1016.9
20260508003504 10 0 0.0 0.0 0.00 0.00 0.00 79 1016.9
20260508003425 10 0 0.0 0.0 0.00 0.00 0.00 79 1017.0
20260508003304 10 0 0.0 0.0 0.00 0.00 0.00 79 1016.8
20260508003204 10 0 0.0 0.0 0.00 0.00 0.00 79 1016.8
20260508003105 10 0 0.0 0.0 0.00 0.00 0.00 79 1017.0
20260508003005 10 0 0.0 0.0 0.00 0.00 0.00 79 1017.1
20260508002904 10 0 0.0 0.0 0.00 0.00 0.00 78 1017.0
20260508002804 10 0 0.0 0.0 0.00 0.00 0.00 78 1017.0
20260508002704 10 0 0.0 0.0 0.00 0.00 0.00 78 1017.1
20260508002625 10 0 0.0 0.0 0.00 0.00 0.00 78 1016.9
20260508002504 10 0 0.0 0.0 0.00 0.00 0.00 78 1016.8
20260508002404 10 162 0.0 3.2 0.00 0.00 0.00 78 1016.8
20260508002306 10 127 0.0 3.2 0.00 0.00 0.00 78 1017.0
20260508002225 10 127 0.0 3.2 0.00 0.00 0.00 78 1017.0
20260508002104 10 127 0.0 3.2 0.00 0.00 0.00 78 1016.9
20260508002004 10 127 0.0 3.2 0.00 0.00 0.00 78 1016.8
20260508001904 10 127 0.0 3.2 0.00 0.00 0.00 78 1016.8
20260508001825 10 127 0.0 3.2 0.00 0.00 0.00 78 1016.8
20260508001725 10 127 0.0 3.2 0.00 0.00 0.00 78 1016.9
20260508001604 10 127 0.0 3.2 0.00 0.00 0.00 77 1016.7
20260508001504 10 127 0.0 3.2 0.00 0.00 0.00 78 1016.7
20260508001404 10 111 0.0 3.2 0.00 0.00 0.00 78 1016.6
20260508001304 10 0 0.0 0.0 0.00 0.00 0.00 78 1017.0
20260508001204 10 0 0.0 0.0 0.00 0.00 0.00 77 1016.8
20260508001104 10 0 0.0 0.0 0.00 0.00 0.00 77 1016.9
20260508001025 10 0 0.0 0.0 0.00 0.00 0.00 77 1016.8
20260508000904 10 0 0.0 0.0 0.00 0.00 0.00 78 1016.7
20260508000804 10 0 0.0 0.0 0.00 0.00 0.00 77 1016.9
20260508000704 10 0 0.0 0.0 0.00 0.00 0.00 77 1016.9
20260508000604 10 0 0.0 0.0 0.00 0.00 0.00 77 1017.0
20260508000525 10 0 0.0 0.0 0.00 0.00 0.00 77 1017.0
20260508000427 10 177 0.0 1.6 0.00 0.00 0.00 77 1016.9
20260508000305 10 186 0.0 1.6 0.00 0.00 0.00 77 1017.1
20260508000227 10 186 0.0 1.6 0.00 0.00 0.00 77 1017.0
20260508000104 10 186 0.0 1.6 0.00 0.00 0.00 77 1016.9
20260508000004 11 186 0.0 1.6 0.00 0.00 0.00 76 1017.0
20260507235925 11 186 0.0 1.6 0.00 0.00 0.00 76 1017.2
20260507235804 11 186 0.0 1.6 0.00 0.00 0.00 77 1017.0
20260507235704 11 186 0.0 1.6 0.00 0.00 0.00 76 1017.0
20260507235604 11 186 0.0 1.6 0.00 0.00 0.00 76 1017.1
20260507235504 11 186 0.0 1.6 0.00 0.00 0.00 76 1017.0
20260507235425 11 186 0.0 1.6 0.00 0.00 0.00 76 1017.1
20260507235306 11 166 0.0 1.6 0.00 0.00 0.00 77 1017.1
20260507235204 11 166 0.0 1.6 0.00 0.00 0.00 77 1017.0
20260507235104 11 166 0.0 1.6 0.00 0.00 0.00 76 1017.1
20260507235004 11 166 0.0 1.6 0.00 0.00 0.00 77 1017.0
20260507234925 11 166 0.0 1.6 0.00 0.00 0.00 76 1017.0
20260507234804 11 166 0.0 1.6 0.00 0.00 0.00 76 1017.1
20260507234704 11 166 0.0 1.6 0.00 0.00 0.00 76 1017.1
20260507234604 11 166 0.0 1.6 0.00 0.00 0.00 76 1017.1
20260507234504 11 166 0.0 1.6 0.00 0.00 0.00 76 1017.0
20260507234404 11 166 0.0 1.6 0.00 0.00 0.00 76 1016.9
20260507234304 11 0 0.0 0.0 0.00 0.00 0.00 76 1017.2
20260507234204 11 0 0.0 0.0 0.00 0.00 0.00 76 1017.2
20260507234104 11 202 0.0 1.6 0.00 0.00 0.00 76 1017.1
20260507234004 11 175 0.0 3.2 0.00 0.00 0.00 76 1016.8
20260507233904 11 175 0.0 3.2 0.00 0.00 0.00 76 1017.1
20260507233805 11 174 0.0 3.2 0.00 0.00 0.00 76 1017.1
20260507233704 11 173 0.0 3.2 0.00 0.00 0.00 76 1017.1
20260507233604 11 173 0.0 3.2 0.00 0.00 0.00 76 1017.2
20260507233504 11 173 0.0 3.2 0.00 0.00 0.00 76 1017.2
20260507233404 11 176 0.0 3.2 0.00 0.00 0.00 76 1017.3
20260507233304 11 178 0.0 3.2 0.00 0.00 0.00 76 1017.1
20260507233205 11 179 0.0 3.2 0.00 0.00 0.00 76 1017.0
20260507233104 11 176 0.0 3.2 0.00 0.00 0.00 76 1017.2
20260507233025 11 177 0.0 3.2 0.00 0.00 0.00 76 1017.2
20260507232904 11 178 0.0 3.2 0.00 0.00 0.00 75 1017.1
20260507232804 11 179 0.0 3.2 0.00 0.00 0.00 76 1017.2
20260507232726 11 179 0.0 3.2 0.00 0.00 0.00 75 1017.2
20260507232604 11 175 0.0 3.2 0.00 0.00 0.00 75 1017.2
20260507232505 11 175 0.0 3.2 0.00 0.00 0.00 75 1017.3
20260507232404 11 173 0.0 3.2 0.00 0.00 0.00 75 1017.1
20260507232306 11 170 0.0 3.2 0.00 0.00 0.00 75 1017.0
20260507232204 11 167 0.0 3.2 0.00 0.00 0.00 75 1017.0
20260507232104 11 167 0.0 3.2 0.00 0.00 0.00 75 1016.9
20260507232004 11 168 0.0 3.2 0.00 0.00 0.00 75 1017.0
20260507231904 11 167 0.0 3.2 0.00 0.00 0.00 75 1017.0
20260507231805 11 161 0.0 3.2 0.00 0.00 0.00 75 1017.0
20260507231704 11 160 0.0 3.2 0.00 0.00 0.00 75 1017.0
20260507231604 11 163 0.0 3.2 0.00 0.00 0.00 75 1016.9
20260507231525 11 163 0.0 3.2 0.00 0.00 0.00 75 1017.2
20260507231404 11 163 0.0 3.2 0.00 0.00 0.00 75 1017.2
20260507231304 11 164 0.0 3.2 0.00 0.00 0.00 75 1017.0
20260507231204 11 168 0.0 4.8 0.00 0.00 0.00 75 1017.2
20260507231125 11 168 0.0 4.8 0.00 0.00 0.00 75 1017.0
20260507231004 11 168 0.0 4.8 0.00 0.00 0.00 75 1017.0
20260507230904 11 169 0.0 4.8 0.00 0.00 0.00 75 1017.3
20260507230804 11 169 0.0 4.8 0.00 0.00 0.00 75 1017.2
20260507230704 11 169 0.0 4.8 0.00 0.00 0.00 75 1017.0
20260507230604 11 170 0.0 4.8 0.00 0.00 0.00 75 1017.0
20260507230525 11 170 0.0 4.8 0.00 0.00 0.00 75 1017.4
20260507230404 11 171 0.0 4.8 0.00 0.00 0.00 75 1017.3
20260507230325 11 173 0.0 4.8 0.00 0.00 0.00 75 1017.2
20260507230204 11 171 0.0 4.8 0.00 0.00 0.00 75 1017.1
20260507230104 11 171 0.0 4.8 0.00 0.00 0.00 74 1017.0
20260507230005 11 168 0.0 4.8 0.00 0.00 0.00 74 1017.3
20260507225904 11 167 0.0 4.8 0.00 0.00 0.00 74 1017.2
20260507225804 11 170 0.0 4.8 0.00 0.00 0.00 74 1017.0
20260507225704 11 170 0.0 4.8 0.00 0.00 0.00 74 1017.1
20260507225604 11 170 0.0 4.8 0.00 0.00 0.00 74 1017.1
20260507225504 11 169 0.0 4.8 0.00 0.00 0.00 74 1017.1
20260507225404 11 171 0.0 4.8 0.00 0.00 0.00 74 1017.1
20260507225306 11 168 0.0 4.8 0.00 0.00 0.00 74 1017.1
20260507225204 11 168 0.0 4.8 0.00 0.00 0.00 74 1017.2
20260507225104 11 169 0.0 4.8 0.00 0.00 0.00 74 1017.4
20260507225004 11 170 0.0 4.8 0.00 0.00 0.00 74 1017.0
20260507224904 11 171 0.0 4.8 0.00 0.00 0.00 74 1017.0
20260507224804 12 170 0.0 4.8 0.00 0.00 0.00 74 1017.1
20260507224705 12 168 0.0 4.8 0.00 0.00 0.00 74 1017.2
20260507224604 12 168 0.0 4.8 0.00 0.00 0.00 74 1017.4
20260507224505 12 168 0.0 4.8 0.00 0.00 0.00 74 1017.1
20260507224404 12 164 0.0 4.8 0.00 0.00 0.00 74 1017.2
20260507224304 12 166 0.0 4.8 0.00 0.00 0.00 74 1017.2
20260507224204 12 167 0.0 4.8 0.00 0.00 0.00 74 1017.3
20260507224125 12 160 0.0 3.2 0.00 0.00 0.00 74 1017.3
20260507224004 12 162 0.0 3.2 0.00 0.00 0.00 74 1017.2
20260507223904 12 162 0.0 3.2 0.00 0.00 0.00 74 1017.1
20260507223804 12 162 0.0 3.2 0.00 0.00 0.00 74 1017.3
20260507223704 12 170 0.0 1.6 0.00 0.00 0.00 74 1017.2
20260507223604 12 169 0.0 1.6 0.00 0.00 0.00 74 1017.4
20260507223504 12 169 0.0 1.6 0.00 0.00 0.00 73 1017.3
20260507223404 12 175 0.0 1.6 0.00 0.00 0.00 74 1017.4
20260507223304 12 177 0.0 1.6 0.00 0.00 0.00 73 1017.3
20260507223204 12 176 0.0 1.6 0.00 0.00 0.00 74 1017.3
20260507223104 12 176 0.0 1.6 0.00 0.00 0.00 74 1017.3
20260507223005 12 182 0.0 1.6 0.00 0.00 0.00 74 1017.3
20260507222904 12 188 0.0 1.6 0.00 0.00 0.00 73 1017.6
20260507222804 12 187 0.0 1.6 0.00 0.00 0.00 73 1017.2
20260507222725 12 187 0.0 1.6 0.00 0.00 0.00 73 1017.4
20260507222604 12 187 0.0 1.6 0.00 0.00 0.00 73 1017.3
20260507222504 12 187 0.0 1.6 0.00 0.00 0.00 73 1017.4
20260507222404 12 186 0.0 1.6 0.00 0.00 0.00 73 1017.5
20260507222306 12 184 0.0 1.6 0.00 0.00 0.00 73 1017.4
20260507222225 12 184 0.0 1.6 0.00 0.00 0.00 73 1017.4
20260507222104 12 184 0.0 1.6 0.00 0.00 0.00 73 1017.4
20260507222004 12 184 0.0 1.6 0.00 0.00 0.00 73 1017.3
20260507221904 12 184 0.0 1.6 0.00 0.00 0.00 73 1017.6
20260507221804 12 0 0.0 0.0 0.00 0.00 0.00 73 1017.3
20260507221704 12 0 0.0 0.0 0.00 0.00 0.00 73 1017.3
20260507221604 12 0 0.0 0.0 0.00 0.00 0.00 73 1017.3
20260507221504 12 0 0.0 0.0 0.00 0.00 0.00 73 1017.5
20260507221404 12 0 0.0 0.0 0.00 0.00 0.00 72 1017.4
20260507221304 12 163 0.0 3.2 0.00 0.00 0.00 72 1017.5
20260507221204 12 163 0.0 3.2 0.00 0.00 0.00 72 1017.4
20260507221104 12 162 0.0 3.2 0.00 0.00 0.00 72 1017.3
20260507221025 12 159 0.0 3.2 0.00 0.00 0.00 72 1017.3
20260507220904 12 158 0.0 3.2 0.00 0.00 0.00 72 1017.3
20260507220804 12 158 0.0 3.2 0.00 0.00 0.00 72 1017.4
20260507220704 12 158 0.0 3.2 0.00 0.00 0.00 71 1017.5
20260507220604 12 158 0.0 3.2 0.00 0.00 0.00 71 1017.6
20260507220504 12 158 0.0 3.2 0.00 0.00 0.00 71 1017.6
20260507220404 12 158 0.0 3.2 0.00 0.00 0.00 71 1017.3
20260507220304 12 160 0.0 3.2 0.00 0.00 0.00 71 1017.3
20260507220205 12 160 0.0 3.2 0.00 0.00 0.00 71 1017.2
20260507220104 12 160 0.0 3.2 0.00 0.00 0.00 71 1017.3
20260507220004 12 174 0.0 3.2 0.00 0.00 0.00 71 1017.5
20260507215904 12 174 0.0 3.2 0.00 0.00 0.00 71 1017.5
20260507215804 12 174 0.0 3.2 0.00 0.00 0.00 71 1017.5
20260507215704 12 174 0.0 3.2 0.00 0.00 0.00 71 1017.6
20260507215604 12 175 0.0 3.2 0.00 0.00 0.00 71 1017.5
20260507215504 12 175 0.0 3.2 0.00 0.00 0.00 71 1017.2
20260507215404 12 175 0.0 3.2 0.00 0.00 0.00 71 1017.3
20260507215306 12 158 0.0 3.2 0.00 0.00 0.00 70 1017.5
20260507215225 12 161 0.0 3.2 0.00 0.00 0.00 70 1017.7
20260507215104 12 161 0.0 3.2 0.00 0.00 0.00 70 1017.3
20260507215004 12 161 0.0 3.2 0.00 0.00 0.00 70 1017.5
20260507214904 12 162 0.0 3.2 0.00 0.00 0.00 70 1017.4
20260507214804 13 163 0.0 3.2 0.00 0.00 0.00 70 1017.4
20260507214725 13 163 0.0 3.2 0.00 0.00 0.00 70 1017.4
20260507214604 13 162 0.0 3.2 0.00 0.00 0.00 70 1017.5
20260507214504 13 164 0.0 3.2 0.00 0.00 0.00 70 1017.5
20260507214404 13 164 0.0 3.2 0.00 0.00 0.00 70 1017.3
20260507214304 13 168 0.0 3.2 0.00 0.00 0.00 69 1017.6
20260507214204 13 170 0.0 1.6 0.00 0.00 0.00 69 1017.3
20260507214104 13 171 0.0 1.6 0.00 0.00 0.00 69 1017.5
20260507214004 13 171 0.0 1.6 0.00 0.00 0.00 69 1017.5
20260507213925 13 171 0.0 1.6 0.00 0.00 0.00 69 1017.5
20260507213804 13 171 0.0 1.6 0.00 0.00 0.00 69 1017.7
20260507213704 13 171 0.0 1.6 0.00 0.00 0.00 69 1017.3
20260507213604 13 171 0.0 1.6 0.00 0.00 0.00 69 1017.7
20260507213504 13 152 0.0 1.6 0.00 0.00 0.00 69 1017.6
20260507213404 13 152 0.0 1.6 0.00 0.00 0.00 69 1017.5
20260507213304 13 152 0.0 1.6 0.00 0.00 0.00 69 1017.4
20260507213225 13 153 0.0 1.6 0.00 0.00 0.00 69 1017.4
20260507213104 13 153 0.0 1.6 0.00 0.00 0.00 69 1017.6
20260507213004 13 153 0.0 1.6 0.00 0.00 0.00 68 1017.5
20260507212905 13 153 0.0 1.6 0.00 0.00 0.00 68 1017.7
20260507212804 13 156 0.0 1.6 0.00 0.00 0.00 68 1017.5
20260507212704 13 156 0.0 1.6 0.00 0.00 0.00 68 1017.4
20260507212604 13 156 0.0 1.6 0.00 0.00 0.00 68 1017.3
20260507212504 13 159 0.0 1.6 0.00 0.00 0.00 68 1017.4
20260507212404 13 159 0.0 1.6 0.00 0.00 0.00 68 1017.4
20260507212307 13 159 0.0 1.6 0.00 0.00 0.00 68 1017.5
20260507212204 13 165 0.0 1.6 0.00 0.00 0.00 68 1017.5
20260507212125 13 168 0.0 1.6 0.00 0.00 0.00 68 1017.4
20260507212004 13 168 0.0 1.6 0.00 0.00 0.00 68 1017.5
20260507211904 13 165 0.0 1.6 0.00 0.00 0.00 68 1017.0
20260507211804 13 164 0.0 1.6 0.00 0.00 0.00 68 1017.4
20260507211704 13 164 0.0 1.6 0.00 0.00 0.00 68 1017.7
20260507211604 13 164 0.0 1.6 0.00 0.00 0.00 68 1017.5
20260507211504 13 164 0.0 1.6 0.00 0.00 0.00 68 1017.6
20260507211404 13 164 0.0 1.6 0.00 0.00 0.00 67 1017.4
20260507211304 13 164 0.0 1.6 0.00 0.00 0.00 67 1017.5
20260507211204 13 157 0.0 1.6 0.00 0.00 0.00 67 1017.4
20260507211104 13 157 0.0 1.6 0.00 0.00 0.00 67 1017.3
20260507211004 13 157 0.0 1.6 0.00 0.00 0.00 67 1017.5
20260507210904 13 0 0.0 0.0 0.00 0.00 0.00 67 1017.3
20260507210804 13 0 0.0 0.0 0.00 0.00 0.00 67 1017.4
20260507210725 13 0 0.0 0.0 0.00 0.00 0.00 67 1017.4
20260507210604 13 0 0.0 0.0 0.00 0.00 0.00 67 1017.4
20260507210504 13 0 0.0 0.0 0.00 0.00 0.00 67 1017.3
20260507210404 13 0 0.0 0.0 0.00 0.00 0.00 67 1017.4
20260507210304 13 0 0.0 0.0 0.00 0.00 0.00 67 1017.4
20260507210204 13 0 0.0 0.0 0.00 0.00 0.00 66 1017.4
20260507210104 13 0 0.0 0.0 0.00 0.00 0.00 67 1017.2
20260507210005 13 0 0.0 0.0 0.00 0.00 0.00 66 1017.4
20260507205904 13 0 0.0 0.0 0.00 0.00 0.00 66 1017.2
20260507205804 13 0 0.0 0.0 0.00 0.00 0.00 66 1017.2
20260507205704 13 0 0.0 0.0 0.00 0.00 0.00 66 1017.3
20260507205604 13 0 0.0 0.0 0.00 0.00 0.00 66 1017.1
20260507205525 13 0 0.0 0.0 0.00 0.00 0.00 66 1017.2
20260507205404 13 0 0.0 0.0 0.00 0.00 0.00 66 1017.2
20260507205306 13 166 0.0 1.6 0.00 0.00 0.00 66 1017.5
20260507205225 13 166 0.0 1.6 0.00 0.00 0.00 66 1017.4
20260507205104 13 166 0.0 1.6 0.00 0.00 0.00 65 1017.3
20260507205004 13 166 0.0 1.6 0.00 0.00 0.00 65 1017.3
20260507204904 13 166 0.0 1.6 0.00 0.00 0.00 65 1017.3
20260507204804 14 166 0.0 1.6 0.00 0.00 0.00 65 1017.1
20260507204704 14 166 0.0 1.6 0.00 0.00 0.00 65 1017.1
20260507204604 14 166 0.0 1.6 0.00 0.00 0.00 65 1017.2
20260507204505 14 166 0.0 1.6 0.00 0.00 0.00 65 1017.2
20260507204404 14 166 0.0 1.6 0.00 0.00 0.00 64 1017.1
20260507204304 14 0 0.0 0.0 0.00 0.00 0.00 64 1017.3
20260507204205 14 0 0.0 0.0 0.00 0.00 0.00 64 1017.2
20260507204125 14 0 0.0 0.0 0.00 0.00 0.00 64 1017.1
20260507204004 14 0 0.0 0.0 0.00 0.00 0.00 64 1017.3
20260507203904 14 0 0.0 0.0 0.00 0.00 0.00 64 1017.0
20260507203825 14 0 0.0 0.0 0.00 0.00 0.00 64 1017.1
20260507203704 14 0 0.0 0.0 0.00 0.00 0.00 64 1017.2
20260507203604 14 0 0.0 0.0 0.00 0.00 0.00 64 1017.2
20260507203504 14 172 0.0 1.6 0.00 0.00 0.00 64 1017.2
20260507203404 14 172 0.0 1.6 0.00 0.00 0.00 63 1017.0
20260507203325 14 172 0.0 1.6 0.00 0.00 0.00 63 1017.2
20260507203204 14 172 0.0 1.6 0.00 0.00 0.00 63 1017.1
20260507203104 14 166 0.0 3.2 0.00 0.00 0.00 63 1017.3
20260507203004 14 166 0.0 3.2 0.00 0.00 0.00 63 1017.1
20260507202904 14 169 0.0 3.2 0.00 0.00 0.00 63 1017.3
20260507202804 14 169 0.0 3.2 0.00 0.00 0.00 63 1017.1
20260507202704 14 166 0.0 3.2 0.00 0.00 0.00 63 1017.3
20260507202604 14 166 0.0 3.2 0.00 0.00 0.00 62 1017.1
20260507202525 15 166 0.0 3.2 0.00 0.00 0.00 62 1017.2
20260507202425 15 164 0.0 3.2 0.00 0.00 0.00 62 1017.2
20260507202306 15 164 0.0 3.2 0.00 0.00 0.00 62 1017.4
20260507202225 15 164 0.0 3.2 0.00 0.00 0.00 62 1017.0
20260507202104 15 166 0.0 3.2 0.00 0.00 0.00 62 1017.1
20260507202005 15 167 0.0 3.2 0.00 0.00 0.00 62 1017.0
20260507201925 15 163 0.0 3.2 0.00 0.00 0.00 62 1017.0
20260507201804 15 164 0.0 3.2 0.00 0.00 0.00 62 1017.2
20260507201725 15 173 0.0 3.2 0.00 0.00 0.00 62 1016.9
20260507201604 15 174 0.0 3.2 0.00 0.00 0.00 61 1017.0
20260507201504 15 174 0.0 3.2 0.00 0.00 0.00 61 1016.9
20260507201404 15 174 0.0 3.2 0.00 0.00 0.00 61 1016.9
20260507201304 15 175 0.0 3.2 0.00 0.00 0.00 61 1017.1
20260507201204 15 176 0.0 3.2 0.00 0.00 0.00 61 1017.2
20260507201104 15 176 0.0 3.2 0.00 0.00 0.00 61 1017.0
20260507201004 15 179 0.0 4.8 0.00 0.00 0.00 61 1017.0
20260507200925 15 180 0.0 4.8 0.00 0.00 0.00 60 1017.0
20260507200804 15 182 0.0 4.8 0.00 0.00 0.00 60 1017.0
20260507200704 15 181 0.0 4.8 0.00 0.00 0.00 60 1017.0
20260507200604 15 181 0.0 4.8 0.00 0.00 0.00 60 1016.9
20260507200526 15 181 0.0 4.8 0.00 0.00 0.00 60 1017.0
20260507200404 15 181 0.0 4.8 0.00 0.00 0.00 60 1017.2
20260507200304 15 180 0.0 4.8 0.00 0.00 0.00 59 1017.2
20260507200204 15 177 0.0 4.8 0.00 0.00 0.00 59 1017.0
20260507200126 15 177 0.0 4.8 0.00 0.00 0.00 59 1017.3
20260507200004 15 175 0.0 4.8 0.00 0.00 0.00 59 1017.1
20260507195904 15 174 0.0 4.8 0.00 0.00 0.00 59 1016.9
20260507195804 15 169 0.0 4.8 0.00 0.00 0.00 59 1017.2
20260507195704 15 168 0.0 4.8 0.00 0.00 0.00 59 1016.9
20260507195604 15 168 0.0 4.8 0.00 0.00 0.00 59 1017.0
20260507195504 15 168 0.0 4.8 0.00 0.00 0.00 58 1017.2
20260507195404 15 168 0.0 4.8 0.00 0.00 0.00 58 1017.0
20260507195305 15 168 0.0 4.8 0.00 0.00 0.00 58 1016.8
20260507195204 15 167 0.0 4.8 0.00 0.00 0.00 58 1017.0
20260507195125 15 159 0.0 3.2 0.00 0.00 0.00 58 1017.0
20260507195004 15 159 0.0 3.2 0.00 0.00 0.00 58 1017.3
20260507194904 15 161 0.0 3.2 0.00 0.00 0.00 58 1016.9
20260507194804 15 167 0.0 3.2 0.00 0.00 0.00 58 1017.0
20260507194705 15 170 0.0 3.2 0.00 0.00 0.00 58 1017.0
20260507194604 15 170 0.0 3.2 0.00 0.00 0.00 58 1017.1
20260507194504 15 161 0.0 4.8 0.00 0.00 0.00 57 1017.1
20260507194404 15 159 0.0 4.8 0.00 0.00 0.00 57 1017.0
20260507194304 15 157 0.0 4.8 0.00 0.00 0.00 57 1016.9
20260507194204 15 157 0.0 4.8 0.00 0.00 0.00 57 1016.9
20260507194104 15 157 0.0 4.8 0.00 0.00 0.00 57 1017.1
20260507194004 15 157 0.0 4.8 0.00 0.00 0.00 57 1016.9
20260507193904 15 157 0.0 4.8 0.00 0.00 0.00 56 1016.8
20260507193804 15 157 0.0 4.8 0.00 0.00 0.00 56 1017.1
20260507193704 16 157 0.0 4.8 0.00 0.00 0.00 56 1017.0
20260507193605 15 157 0.0 4.8 0.00 0.00 0.00 56 1016.9
20260507193504 15 157 0.0 3.2 0.00 0.00 0.00 56 1017.0
20260507193425 16 157 0.0 3.2 0.00 0.00 0.00 56 1016.9
20260507193325 16 166 0.0 4.8 0.00 0.00 0.00 55 1017.0
20260507193204 16 170 0.0 4.8 0.00 0.00 0.00 55 1017.2
20260507193104 16 170 0.0 4.8 0.00 0.00 0.00 55 1016.8
20260507193004 16 173 0.0 4.8 0.00 0.00 0.00 55 1017.0
20260507192904 16 174 0.0 4.8 0.00 0.00 0.00 55 1017.2
20260507192804 16 174 0.0 4.8 0.00 0.00 0.00 55 1017.0
20260507192704 16 174 0.0 4.8 0.00 0.00 0.00 54 1017.0
20260507192604 16 171 0.0 4.8 0.00 0.00 0.00 54 1016.8
20260507192504 16 173 0.0 4.8 0.00 0.00 0.00 54 1017.0
20260507192404 16 172 0.0 4.8 0.00 0.00 0.00 54 1016.9
20260507192306 16 171 0.0 4.8 0.00 0.00 0.00 54 1016.9
20260507192225 16 169 0.0 4.8 0.00 0.00 0.00 54 1017.1
20260507192104 16 166 0.0 3.2 0.00 0.00 0.00 54 1017.1
20260507192004 16 167 0.0 3.2 0.00 0.00 0.00 54 1016.9
20260507191904 16 167 0.0 3.2 0.00 0.00 0.00 54 1016.9
20260507191804 16 167 0.0 3.2 0.00 0.00 0.00 54 1017.1
20260507191704 16 168 0.0 3.2 0.00 0.00 0.00 53 1016.9
20260507191604 16 170 0.0 3.2 0.00 0.00 0.00 54 1017.2
20260507191504 16 168 0.0 3.2 0.00 0.00 0.00 54 1017.1
20260507191425 16 169 0.0 3.2 0.00 0.00 0.00 53 1017.0
20260507191304 16 171 0.0 1.6 0.00 0.00 0.00 53 1016.9
20260507191225 16 170 0.0 1.6 0.00 0.00 0.00 53 1017.2
20260507191125 16 169 0.0 1.6 0.00 0.00 0.00 53 1017.1
20260507191025 16 169 0.0 1.6 0.00 0.00 0.00 53 1016.9
20260507190925 16 168 0.0 1.6 0.00 0.00 0.00 53 1016.9
20260507190804 16 168 0.0 1.6 0.00 0.00 0.00 53 1017.1
20260507190704 16 159 0.0 3.2 0.00 0.00 0.00 53 1017.0
20260507190604 16 159 0.0 3.2 0.00 0.00 0.00 53 1016.9
20260507190504 16 159 0.0 3.2 0.00 0.00 0.00 52 1016.9
20260507190425 16 155 0.0 3.2 0.00 0.00 0.00 52 1016.8
20260507190304 16 154 0.0 3.2 0.00 0.00 0.00 52 1016.8
20260507190204 16 151 0.0 3.2 0.00 0.00 0.00 53 1016.9
20260507190104 16 148 0.0 3.2 0.00 0.00 0.00 52 1016.9
20260507190005 16 148 0.0 3.2 0.00 0.00 0.00 52 1016.9
20260507185905 16 150 0.0 3.2 0.00 0.00 0.00 52 1016.9
20260507185804 16 150 0.0 3.2 0.00 0.00 0.00 52 1017.0
20260507185704 16 167 0.0 1.6 0.00 0.00 0.00 52 1017.0
20260507185604 16 166 0.0 1.6 0.00 0.00 0.00 52 1017.0
20260507185525 16 166 0.0 1.6 0.00 0.00 0.00 52 1016.8
20260507185404 16 166 0.0 1.6 0.00 0.00 0.00 52 1017.0
20260507185325 16 166 0.0 1.6 0.00 0.00 0.00 52 1016.9
20260507185204 16 161 0.0 1.6 0.00 0.00 0.00 51 1017.0
20260507185104 16 162 0.0 4.8 0.00 0.00 0.00 51 1017.1
20260507185004 16 162 0.0 4.8 0.00 0.00 0.00 51 1016.9
20260507184904 16 162 0.0 4.8 0.00 0.00 0.00 51 1017.0
20260507184804 16 162 0.0 4.8 0.00 0.00 0.00 51 1017.1
20260507184704 16 160 0.0 4.8 0.00 0.00 0.00 51 1016.9
20260507184604 16 165 0.0 4.8 0.00 0.00 0.00 51 1017.1
20260507184504 16 165 0.0 4.8 0.00 0.00 0.00 51 1016.9
20260507184404 16 165 0.0 4.8 0.00 0.00 0.00 51 1016.9
20260507184304 16 165 0.0 4.8 0.00 0.00 0.00 50 1016.9
20260507184225 16 168 0.0 4.8 0.00 0.00 0.00 50 1017.0
20260507184104 16 169 0.0 4.8 0.00 0.00 0.00 50 1016.9
20260507184004 16 168 0.0 4.8 0.00 0.00 0.00 50 1016.7
20260507183904 16 167 0.0 4.8 0.00 0.00 0.00 50 1017.1
20260507183804 16 167 0.0 4.8 0.00 0.00 0.00 50 1016.9
20260507183704 16 167 0.0 4.8 0.00 0.00 0.00 50 1016.8
20260507183604 16 168 0.0 4.8 0.00 0.00 0.00 50 1016.7
20260507183504 16 163 0.0 3.2 0.00 0.00 0.00 50 1016.8
20260507183404 16 163 0.0 3.2 0.00 0.00 0.00 50 1016.8
20260507183304 16 163 0.0 3.2 0.00 0.00 0.00 50 1016.7
20260507183204 16 163 0.0 3.2 0.00 0.00 0.00 50 1016.5
20260507183104 16 163 0.0 3.2 0.00 0.00 0.00 50 1016.5
20260507183004 16 163 0.0 3.2 0.00 0.00 0.00 50 1016.7
20260507182904 16 0 0.0 0.0 0.00 0.00 0.00 50 1016.6
20260507182804 16 0 0.0 0.0 0.00 0.00 0.00 50 1016.8
20260507182704 16 0 0.0 0.0 0.00 0.00 0.00 50 1016.6
20260507182604 16 0 0.0 0.0 0.00 0.00 0.00 50 1016.7
20260507182504 16 0 0.0 0.0 0.00 0.00 0.00 50 1016.5
20260507182425 16 165 0.0 1.6 0.00 0.00 0.00 50 1016.8
20260507182306 16 165 0.0 1.6 0.00 0.00 0.00 49 1016.7
20260507182204 16 165 0.0 1.6 0.00 0.00 0.00 49 1016.9
20260507182104 16 165 0.0 1.6 0.00 0.00 0.00 49 1016.7
20260507182004 16 165 0.0 1.6 0.00 0.00 0.00 49 1016.7
20260507181904 16 165 0.0 1.6 0.00 0.00 0.00 49 1016.6
20260507181825 16 165 0.0 1.6 0.00 0.00 0.00 49 1016.6
20260507181704 16 165 0.0 1.6 0.00 0.00 0.00 48 1016.7
20260507181604 16 165 0.0 1.6 0.00 0.00 0.00 48 1016.5
20260507181504 16 165 0.0 1.6 0.00 0.00 0.00 48 1016.5
20260507181425 16 155 0.0 1.6 0.00 0.00 0.00 48 1016.6
20260507181304 17 155 0.0 1.6 0.00 0.00 0.00 48 1016.7
20260507181204 17 155 0.0 1.6 0.00 0.00 0.00 48 1016.5
20260507181104 17 155 0.0 1.6 0.00 0.00 0.00 48 1016.7
20260507181004 17 155 0.0 1.6 0.00 0.00 0.00 47 1016.5
20260507180904 17 155 0.0 1.6 0.00 0.00 0.00 47 1016.6
20260507180825 17 155 0.0 1.6 0.00 0.00 0.00 47 1016.5
20260507180704 17 150 0.0 3.2 0.00 0.00 0.00 47 1016.6
20260507180604 17 150 0.0 3.2 0.00 0.00 0.00 47 1016.6
20260507180504 17 150 0.0 3.2 0.00 0.00 0.00 47 1016.4
20260507180404 17 145 0.0 3.2 0.00 0.00 0.00 47 1016.5
20260507180304 17 145 0.0 3.2 0.00 0.00 0.00 46 1016.6
20260507180225 17 145 0.0 3.2 0.00 0.00 0.00 46 1016.5
20260507180104 17 145 0.0 3.2 0.00 0.00 0.00 46 1016.3
20260507180025 17 145 0.0 3.2 0.00 0.00 0.00 46 1016.4
20260507175904 17 145 0.0 3.2 0.00 0.00 0.00 46 1016.6
20260507175825 17 145 0.0 3.2 0.00 0.00 0.00 46 1016.5
20260507175704 17 0 0.0 0.0 0.00 0.00 0.00 46 1016.5
20260507175604 17 0 0.0 0.0 0.00 0.00 0.00 46 1016.5
20260507175525 17 0 0.0 0.0 0.00 0.00 0.00 46 1016.6
20260507175404 17 0 0.0 0.0 0.00 0.00 0.00 46 1016.5
20260507175325 17 0 0.0 0.0 0.00 0.00 0.00 46 1016.5
20260507175204 17 0 0.0 0.0 0.00 0.00 0.00 46 1016.5
20260507175104 17 0 0.0 0.0 0.00 0.00 0.00 46 1016.6
20260507175004 17 161 0.0 4.8 0.00 0.00 0.00 46 1016.4
20260507174925 17 164 0.0 4.8 0.00 0.00 0.00 45 1016.4
20260507174804 18 164 0.0 4.8 0.00 0.00 0.00 45 1016.4
20260507174704 18 164 0.0 4.8 0.00 0.00 0.00 45 1016.5
20260507174604 18 164 0.0 4.8 0.00 0.00 0.00 45 1016.3
20260507174525 18 164 0.0 4.8 0.00 0.00 0.00 45 1016.4
20260507174404 18 164 0.0 4.8 0.00 0.00 0.00 45 1016.6
20260507174304 18 164 0.0 4.8 0.00 0.00 0.00 45 1016.3
20260507174225 18 164 0.0 4.8 0.00 0.00 0.00 44 1016.2
20260507174104 18 164 0.0 4.8 0.00 0.00 0.00 44 1016.3
20260507174004 18 166 0.0 4.8 0.00 0.00 0.00 44 1016.6
20260507173904 18 0 0.0 0.0 0.00 0.00 0.00 44 1016.2
20260507173825 18 0 0.0 0.0 0.00 0.00 0.00 44 1016.4
20260507173704 18 0 0.0 0.0 0.00 0.00 0.00 44 1016.5
20260507173604 18 0 0.0 0.0 0.00 0.00 0.00 44 1016.5
20260507173504 18 0 0.0 0.0 0.00 0.00 0.00 43 1016.4
20260507173404 18 0 0.0 0.0 0.00 0.00 0.00 43 1016.6
20260507173325 18 169 0.0 3.2 0.00 0.00 0.00 43 1016.3
20260507173204 18 169 0.0 3.2 0.00 0.00 0.00 44 1016.4
20260507173104 18 169 0.0 3.2 0.00 0.00 0.00 44 1016.3
20260507173025 18 169 0.0 3.2 0.00 0.00 0.00 43 1016.5
20260507172904 18 169 0.0 3.2 0.00 0.00 0.00 43 1016.6
20260507172825 18 169 0.0 3.2 0.00 0.00 0.00 43 1016.2
20260507172704 18 169 0.0 3.2 0.00 0.00 0.00 43 1016.6
20260507172604 18 169 0.0 3.2 0.00 0.00 0.00 43 1016.5
20260507172504 18 169 0.0 3.2 0.00 0.00 0.00 43 1016.3
20260507172404 18 169 0.0 3.2 0.00 0.00 0.00 42 1016.3
20260507172325 18 169 0.0 3.2 0.00 0.00 0.00 42 1016.3
20260507172204 18 0 0.0 0.0 0.00 0.00 0.00 43 1016.4
20260507172104 18 0 0.0 0.0 0.00 0.00 0.00 43 1016.6
20260507172004 18 0 0.0 0.0 0.00 0.00 0.00 42 1016.5
20260507171904 18 0 0.0 0.0 0.00 0.00 0.00 42 1016.5
20260507171804 19 0 0.0 0.0 0.00 0.00 0.00 42 1016.2
20260507171704 19 0 0.0 0.0 0.00 0.00 0.00 42 1016.2
20260507171604 19 0 0.0 0.0 0.00 0.00 0.00 42 1016.0
20260507171504 19 0 0.0 0.0 0.00 0.00 0.00 42 1016.2
20260507171404 19 0 0.0 0.0 0.00 0.00 0.00 41 1016.5
20260507171304 19 0 0.0 0.0 0.00 0.00 0.00 41 1016.3
20260507171204 19 0 0.0 0.0 0.00 0.00 0.00 41 1016.2
20260507171104 19 0 0.0 0.0 0.00 0.00 0.00 41 1016.5
20260507171025 19 0 0.0 0.0 0.00 0.00 0.00 41 1016.2
20260507170904 20 0 0.0 0.0 0.00 0.00 0.00 40 1016.3
20260507170825 20 0 0.0 0.0 0.00 0.00 0.00 40 1016.3
20260507170704 20 166 0.0 3.2 0.00 0.00 0.00 40 1016.2
20260507170604 20 166 0.0 3.2 0.00 0.00 0.00 40 1016.4
20260507170504 20 167 0.0 4.8 0.00 0.00 0.00 40 1016.2
20260507170425 20 169 0.0 4.8 0.00 0.00 0.00 40 1016.2
20260507170325 20 170 0.0 4.8 0.00 0.00 0.00 39 1016.2
20260507170204 20 170 0.0 4.8 0.00 0.00 0.00 39 1016.0
20260507170104 20 171 0.0 4.8 0.00 0.00 0.00 39 1016.6
20260507170004 20 172 0.0 4.8 0.00 0.00 0.00 39 1016.4
20260507165904 20 171 0.0 4.8 0.00 0.00 0.00 39 1016.5
20260507165804 20 159 0.0 9.7 0.00 0.00 0.00 38 1016.1
20260507165704 20 158 0.0 9.7 0.00 0.00 0.00 39 1016.2
20260507165604 20 158 0.0 9.7 0.00 0.00 0.00 38 1016.3
20260507165505 20 158 0.0 9.7 0.00 0.00 0.00 38 1016.3
20260507165404 20 156 0.0 9.7 0.00 0.00 0.00 38 1016.1
20260507165325 20 158 0.0 9.7 0.00 0.00 0.00 38 1016.2
20260507165204 20 164 0.0 9.7 0.00 0.00 0.00 38 1016.2
20260507165104 20 162 1.6 9.7 0.00 0.00 0.00 37 1016.0
20260507165004 20 159 1.6 9.7 0.00 0.00 0.00 38 1016.2
20260507164904 20 160 1.6 9.7 0.00 0.00 0.00 37 1016.0
20260507164804 20 167 0.0 6.4 0.00 0.00 0.00 37 1016.2
20260507164704 20 167 1.6 6.4 0.00 0.00 0.00 37 1016.2
20260507164604 20 166 1.6 6.4 0.00 0.00 0.00 37 1016.0
20260507164504 21 166 1.6 6.4 0.00 0.00 0.00 37 1016.2
20260507164425 21 166 1.6 6.4 0.00 0.00 0.00 37 1016.2
20260507164304 21 160 1.6 6.4 0.00 0.00 0.00 37 1016.1
20260507164205 21 157 1.6 6.4 0.00 0.00 0.00 36 1016.1
20260507164104 21 158 0.0 6.4 0.00 0.00 0.00 37 1016.2
20260507164004 21 158 1.6 6.4 0.00 0.00 0.00 36 1016.2
20260507163925 21 162 1.6 9.7 0.00 0.00 0.00 36 1016.0
20260507163804 21 165 1.6 9.7 0.00 0.00 0.00 36 1016.1
20260507163704 21 163 1.6 9.7 0.00 0.00 0.00 36 1016.0
20260507163625 21 165 1.6 9.7 0.00 0.00 0.00 36 1015.9
20260507163504 21 163 1.6 9.7 0.00 0.00 0.00 36 1016.0
20260507163404 21 162 1.6 11.3 0.00 0.00 0.00 36 1016.1
20260507163304 21 164 1.6 11.3 0.00 0.00 0.00 36 1015.9
20260507163225 21 165 1.6 11.3 0.00 0.00 0.00 36 1016.0
20260507163104 21 166 1.6 11.3 0.00 0.00 0.00 36 1015.9
20260507163025 21 165 1.6 11.3 0.00 0.00 0.00 35 1016.0
20260507162925 21 160 1.6 11.3 0.00 0.00 0.00 35 1016.0
20260507162804 21 160 1.6 11.3 0.00 0.00 0.00 35 1016.0
20260507162704 21 162 1.6 11.3 0.00 0.00 0.00 35 1016.1
20260507162625 21 163 1.6 11.3 0.00 0.00 0.00 35 1016.1
20260507162504 21 163 1.6 11.3 0.00 0.00 0.00 35 1016.2
20260507162404 21 165 0.0 4.8 0.00 0.00 0.00 35 1016.0
20260507162307 21 165 0.0 4.8 0.00 0.00 0.00 35 1016.0
20260507162205 21 163 0.0 4.8 0.00 0.00 0.00 35 1016.0
20260507162125 21 165 0.0 6.4 0.00 0.00 0.00 34 1016.2
20260507162025 21 166 0.0 6.4 0.00 0.00 0.00 34 1016.0
20260507161904 21 169 0.0 6.4 0.00 0.00 0.00 34 1016.1
20260507161804 21 157 1.6 14.5 0.00 0.00 0.00 34 1016.0
20260507161704 21 163 1.6 14.5 0.00 0.00 0.00 34 1016.0
20260507161604 21 162 1.6 14.5 0.00 0.00 0.00 34 1016.0
20260507161504 21 163 1.6 14.5 0.00 0.00 0.00 34 1015.9
20260507161404 21 164 1.6 14.5 0.00 0.00 0.00 34 1015.8
20260507161304 21 163 1.6 14.5 0.00 0.00 0.00 33 1016.0
20260507161204 21 165 1.6 14.5 0.00 0.00 0.00 33 1015.9
20260507161104 22 167 1.6 14.5 0.00 0.00 0.00 33 1015.9
20260507161004 22 168 1.6 14.5 0.00 0.00 0.00 33 1015.9
20260507160904 22 166 1.6 14.5 0.00 0.00 0.00 33 1015.9
20260507160804 22 173 1.6 6.4 0.00 0.00 0.00 33 1015.9
20260507160704 22 168 1.6 6.4 0.00 0.00 0.00 32 1016.1
20260507160604 22 174 1.6 6.4 0.00 0.00 0.00 32 1016.1
20260507160504 22 173 1.6 6.4 0.00 0.00 0.00 32 1016.0
20260507160404 22 175 1.6 9.7 0.00 0.00 0.00 32 1015.6
20260507160304 22 178 1.6 9.7 0.00 0.00 0.00 32 1015.9
20260507160204 22 177 1.6 9.7 0.00 0.00 0.00 32 1016.0
20260507160104 22 177 1.6 9.7 0.00 0.00 0.00 31 1016.0
20260507160004 22 177 1.6 9.7 0.00 0.00 0.00 32 1015.8
20260507155904 22 177 1.6 9.7 0.00 0.00 0.00 31 1015.9
20260507155804 22 179 1.6 9.7 0.00 0.00 0.00 32 1015.9
20260507155704 22 187 1.6 9.7 0.00 0.00 0.00 32 1015.9
20260507155625 22 185 1.6 9.7 0.00 0.00 0.00 31 1015.9
20260507155525 22 182 1.6 9.7 0.00 0.00 0.00 31 1015.7
20260507155404 22 181 1.6 9.7 0.00 0.00 0.00 31 1015.8
20260507155325 22 181 1.6 9.7 0.00 0.00 0.00 31 1015.9
20260507155204 22 178 1.6 9.7 0.00 0.00 0.00 31 1015.9
20260507155104 22 175 1.6 9.7 0.00 0.00 0.00 31 1015.9
20260507155004 22 174 1.6 9.7 0.00 0.00 0.00 31 1015.9
20260507154904 22 175 1.6 9.7 0.00 0.00 0.00 31 1015.9
20260507154804 22 176 1.6 9.7 0.00 0.00 0.00 31 1015.9
20260507154704 22 165 1.6 9.7 0.00 0.00 0.00 31 1016.2
20260507154604 22 165 1.6 9.7 0.00 0.00 0.00 31 1015.9
20260507154504 22 166 1.6 9.7 0.00 0.00 0.00 31 1016.1
20260507154404 22 160 1.6 9.7 0.00 0.00 0.00 31 1015.9
20260507154304 22 160 1.6 12.9 0.00 0.00 0.00 32 1015.9
20260507154204 22 159 1.6 12.9 0.00 0.00 0.00 31 1016.1
20260507154104 22 164 1.6 12.9 0.00 0.00 0.00 31 1015.9
20260507154004 22 167 1.6 12.9 0.00 0.00 0.00 31 1016.1
20260507153904 22 170 1.6 14.5 0.00 0.00 0.00 31 1015.9
20260507153804 22 170 3.2 14.5 0.00 0.00 0.00 32 1015.9
20260507153704 22 172 3.2 14.5 0.00 0.00 0.00 32 1016.0
20260507153604 22 172 3.2 14.5 0.00 0.00 0.00 31 1015.8
20260507153504 22 176 3.2 14.5 0.00 0.00 0.00 31 1016.0
20260507153404 22 178 3.2 14.5 0.00 0.00 0.00 31 1015.9
20260507153304 22 179 3.2 14.5 0.00 0.00 0.00 31 1015.8
20260507153225 22 179 3.2 14.5 0.00 0.00 0.00 31 1015.8
20260507153104 22 177 3.2 14.5 0.00 0.00 0.00 31 1015.7
20260507153004 22 176 3.2 14.5 0.00 0.00 0.00 31 1015.8
20260507152904 22 177 3.2 12.9 0.00 0.00 0.00 31 1015.9
20260507152804 22 180 3.2 12.9 0.00 0.00 0.00 31 1015.9
20260507152704 22 179 3.2 12.9 0.00 0.00 0.00 31 1015.9
20260507152625 22 181 3.2 12.9 0.00 0.00 0.00 30 1015.8
20260507152504 22 179 3.2 16.1 0.00 0.00 0.00 30 1015.8
20260507152425 22 180 3.2 16.1 0.00 0.00 0.00 30 1015.8
20260507152306 23 183 3.2 16.1 0.00 0.00 0.00 31 1016.0
20260507152204 23 181 3.2 16.1 0.00 0.00 0.00 30 1016.2
20260507152104 23 185 3.2 16.1 0.00 0.00 0.00 30 1016.0
20260507152004 23 188 3.2 16.1 0.00 0.00 0.00 30 1016.0
20260507151904 23 187 3.2 16.1 0.00 0.00 0.00 30 1015.8
20260507151804 23 186 4.8 16.1 0.00 0.00 0.00 30 1016.0
20260507151704 23 183 4.8 16.1 0.00 0.00 0.00 30 1015.9
20260507151604 23 175 3.2 16.1 0.00 0.00 0.00 30 1015.9
20260507151505 23 175 3.2 11.3 0.00 0.00 0.00 30 1015.9
20260507151404 23 176 3.2 11.3 0.00 0.00 0.00 29 1016.1
20260507151304 23 175 3.2 12.9 0.00 0.00 0.00 29 1016.1
20260507151204 23 176 3.2 12.9 0.00 0.00 0.00 28 1015.8
20260507151104 23 173 3.2 12.9 0.00 0.00 0.00 28 1016.0
20260507151004 23 170 3.2 12.9 0.00 0.00 0.00 28 1015.9
20260507150904 23 170 3.2 12.9 0.00 0.00 0.00 28 1015.7
20260507150804 23 176 3.2 14.5 0.00 0.00 0.00 28 1015.8
20260507150704 24 174 3.2 14.5 0.00 0.00 0.00 28 1015.7
20260507150604 24 178 3.2 14.5 0.00 0.00 0.00 29 1016.0
20260507150504 24 178 3.2 14.5 0.00 0.00 0.00 29 1015.9
20260507150404 24 176 3.2 14.5 0.00 0.00 0.00 28 1015.9
20260507150304 24 177 3.2 14.5 0.00 0.00 0.00 29 1015.9
20260507150204 24 177 3.2 14.5 0.00 0.00 0.00 28 1015.7
20260507150104 24 180 3.2 14.5 0.00 0.00 0.00 28 1015.8
20260507150005 24 182 3.2 14.5 0.00 0.00 0.00 29 1016.1
20260507145904 24 182 3.2 14.5 0.00 0.00 0.00 28 1016.1
20260507145804 24 173 1.6 14.5 0.00 0.00 0.00 28 1015.8
20260507145704 24 178 1.6 12.9 0.00 0.00 0.00 28 1016.0
20260507145604 24 176 3.2 12.9 0.00 0.00 0.00 28 1016.0
20260507145504 24 178 3.2 12.9 0.00 0.00 0.00 28 1016.0
20260507145404 24 178 3.2 12.9 0.00 0.00 0.00 28 1016.0
20260507145306 24 182 3.2 12.9 0.00 0.00 0.00 28 1016.0
20260507145225 24 181 3.2 12.9 0.00 0.00 0.00 28 1016.0
20260507145104 24 180 3.2 12.9 0.00 0.00 0.00 28 1015.9
20260507145004 24 181 3.2 12.9 0.00 0.00 0.00 28 1016.0
20260507144904 24 180 3.2 14.5 0.00 0.00 0.00 28 1016.0
20260507144804 24 184 3.2 14.5 0.00 0.00 0.00 28 1016.0
20260507144705 24 190 3.2 14.5 0.00 0.00 0.00 27 1016.2
20260507144604 24 194 3.2 14.5 0.00 0.00 0.00 27 1015.8
20260507144504 24 191 3.2 14.5 0.00 0.00 0.00 26 1016.0
20260507144425 24 190 3.2 14.5 0.00 0.00 0.00 26 1015.9
20260507144304 25 185 3.2 14.5 0.00 0.00 0.00 26 1015.9
20260507144204 25 183 3.2 14.5 0.00 0.00 0.00 26 1016.0
20260507144104 25 180 3.2 14.5 0.00 0.00 0.00 26 1016.0
20260507144004 25 178 3.2 14.5 0.00 0.00 0.00 26 1016.2
20260507143904 25 176 1.6 11.3 0.00 0.00 0.00 27 1015.9
20260507143804 25 174 1.6 11.3 0.00 0.00 0.00 27 1015.9
20260507143704 25 165 1.6 11.3 0.00 0.00 0.00 27 1015.9
20260507143604 25 167 1.6 11.3 0.00 0.00 0.00 27 1016.0
20260507143504 25 168 1.6 9.7 0.00 0.00 0.00 27 1016.1
20260507143404 25 169 1.6 9.7 0.00 0.00 0.00 27 1016.2
20260507143325 25 169 1.6 9.7 0.00 0.00 0.00 27 1016.1
20260507143225 25 171 1.6 11.3 0.00 0.00 0.00 26 1016.1
20260507143104 25 180 1.6 11.3 0.00 0.00 0.00 26 1016.0
20260507143004 25 179 1.6 11.3 0.00 0.00 0.00 25 1015.9
20260507142904 25 176 1.6 11.3 0.00 0.00 0.00 24 1016.0
20260507142804 25 180 1.6 11.3 0.00 0.00 0.00 25 1016.0
20260507142704 25 178 1.6 11.3 0.00 0.00 0.00 25 1016.1
20260507142604 25 181 1.6 14.5 0.00 0.00 0.00 26 1016.0
20260507142504 25 182 1.6 14.5 0.00 0.00 0.00 25 1016.0
20260507142404 25 182 1.6 14.5 0.00 0.00 0.00 25 1016.1
20260507142306 25 188 1.6 14.5 0.00 0.00 0.00 25 1016.2
20260507142204 25 186 1.6 14.5 0.00 0.00 0.00 25 1016.1
20260507142125 25 180 1.6 14.5 0.00 0.00 0.00 26 1016.1
20260507142004 25 182 1.6 14.5 0.00 0.00 0.00 25 1016.0
20260507141904 25 181 3.2 14.5 0.00 0.00 0.00 26 1016.2
20260507141804 25 181 3.2 14.5 0.00 0.00 0.00 26 1016.1
20260507141704 25 184 3.2 14.5 0.00 0.00 0.00 26 1016.2
20260507141604 25 179 3.2 14.5 0.00 0.00 0.00 26 1015.9
20260507141504 25 179 3.2 12.9 0.00 0.00 0.00 25 1016.0
20260507141404 25 180 3.2 12.9 0.00 0.00 0.00 25 1016.1
20260507141304 25 179 3.2 12.9 0.00 0.00 0.00 25 1016.4
20260507141225 25 179 3.2 12.9 0.00 0.00 0.00 25 1016.2
20260507141104 25 179 3.2 12.9 0.00 0.00 0.00 25 1016.1
20260507141004 25 176 3.2 12.9 0.00 0.00 0.00 25 1016.3
20260507140925 25 179 3.2 12.9 0.00 0.00 0.00 24 1016.4
20260507140804 25 177 3.2 12.9 0.00 0.00 0.00 26 1016.1
20260507140704 25 173 3.2 12.9 0.00 0.00 0.00 25 1016.4
20260507140604 25 176 1.6 12.9 0.00 0.00 0.00 25 1016.2
20260507140504 25 175 1.6 12.9 0.00 0.00 0.00 24 1016.0
20260507140425 25 177 1.6 12.9 0.00 0.00 0.00 24 1016.2
20260507140304 25 174 1.6 12.9 0.00 0.00 0.00 24 1016.0
20260507140204 26 178 1.6 12.9 0.00 0.00 0.00 24 1016.0
20260507140104 26 182 1.6 12.9 0.00 0.00 0.00 24 1016.2
20260507140025 26 185 1.6 11.3 0.00 0.00 0.00 24 1016.0
20260507135904 26 186 1.6 11.3 0.00 0.00 0.00 24 1016.1
20260507135825 26 186 1.6 11.3 0.00 0.00 0.00 24 1016.1
20260507135704 26 185 1.6 12.9 0.00 0.00 0.00 24 1016.2
20260507135604 26 188 1.6 12.9 0.00 0.00 0.00 24 1016.3
20260507135504 25 189 1.6 12.9 0.00 0.00 0.00 24 1016.1
20260507135404 25 188 1.6 12.9 0.00 0.00 0.00 24 1016.0
20260507135306 25 191 1.6 12.9 0.00 0.00 0.00 24 1016.2
20260507135225 25 191 1.6 12.9 0.00 0.00 0.00 24 1016.0
20260507135104 25 185 1.6 12.9 0.00 0.00 0.00 25 1016.2
20260507135025 25 184 1.6 12.9 0.00 0.00 0.00 25 1016.2
20260507134904 26 182 1.6 12.9 0.00 0.00 0.00 25 1016.3
20260507134825 26 184 1.6 12.9 0.00 0.00 0.00 24 1016.2
20260507134725 26 187 1.6 12.9 0.00 0.00 0.00 24 1016.2
20260507134604 26 180 1.6 12.9 0.00 0.00 0.00 24 1016.3
20260507134504 26 180 1.6 12.9 0.00 0.00 0.00 24 1016.3
20260507134404 26 176 1.6 12.9 0.00 0.00 0.00 24 1016.4
20260507134325 25 173 1.6 12.9 0.00 0.00 0.00 24 1016.3
20260507134225 25 176 1.6 12.9 0.00 0.00 0.00 24 1016.4
20260507134104 25 175 3.2 12.9 0.00 0.00 0.00 25 1016.2
20260507134025 26 175 3.2 12.9 0.00 0.00 0.00 24 1016.4
20260507133904 26 178 3.2 12.9 0.00 0.00 0.00 24 1016.1
20260507133804 26 175 3.2 12.9 0.00 0.00 0.00 25 1016.2
20260507133704 26 176 3.2 12.9 0.00 0.00 0.00 25 1016.0
20260507133604 26 175 1.6 11.3 0.00 0.00 0.00 25 1016.3
20260507133504 26 182 1.6 11.3 0.00 0.00 0.00 25 1016.2
20260507133404 26 183 1.6 11.3 0.00 0.00 0.00 25 1016.2
20260507133304 26 185 1.6 12.9 0.00 0.00 0.00 25 1016.3
20260507133204 25 186 1.6 12.9 0.00 0.00 0.00 25 1016.3
20260507133104 25 187 3.2 12.9 0.00 0.00 0.00 26 1016.3
20260507133004 25 186 3.2 12.9 0.00 0.00 0.00 25 1016.3
20260507132904 25 189 3.2 12.9 0.00 0.00 0.00 25 1016.2
20260507132804 25 188 3.2 14.5 0.00 0.00 0.00 24 1016.1
20260507132704 25 183 3.2 14.5 0.00 0.00 0.00 25 1016.2
20260507132605 25 180 3.2 14.5 0.00 0.00 0.00 26 1016.3
20260507132504 25 176 3.2 14.5 0.00 0.00 0.00 25 1016.2
20260507132404 25 176 3.2 14.5 0.00 0.00 0.00 26 1016.3
20260507132307 25 172 3.2 14.5 0.00 0.00 0.00 25 1016.4
20260507132204 25 172 3.2 14.5 0.00 0.00 0.00 25 1016.2
20260507132104 25 175 3.2 14.5 0.00 0.00 0.00 24 1016.2
20260507132025 25 173 3.2 14.5 0.00 0.00 0.00 24 1016.2
20260507131906 26 169 3.2 14.5 0.00 0.00 0.00 24 1015.9
20260507131804 26 168 1.6 14.5 0.00 0.00 0.00 23 1016.0
20260507131704 26 171 1.6 11.3 0.00 0.00 0.00 24 1016.2
20260507131625 26 177 1.6 9.7 0.00 0.00 0.00 24 1016.0
20260507131504 26 171 1.6 12.9 0.00 0.00 0.00 24 1016.2
20260507131404 26 172 1.6 12.9 0.00 0.00 0.00 24 1016.3
20260507131304 26 176 1.6 12.9 0.00 0.00 0.00 24 1016.4
20260507131225 26 175 1.6 12.9 0.00 0.00 0.00 23 1016.2
20260507131104 26 171 1.6 12.9 0.00 0.00 0.00 22 1016.2
20260507131004 26 171 1.6 12.9 0.00 0.00 0.00 23 1016.4
20260507130904 26 172 1.6 12.9 0.00 0.00 0.00 24 1016.2
20260507130804 26 172 3.2 12.9 0.00 0.00 0.00 24 1016.5
20260507130704 26 172 3.2 12.9 0.00 0.00 0.00 24 1016.1
20260507130605 26 173 3.2 12.9 0.00 0.00 0.00 24 1016.3
20260507130504 26 178 3.2 16.1 0.00 0.00 0.00 24 1016.1
20260507130404 26 177 3.2 16.1 0.00 0.00 0.00 24 1016.3
20260507130304 26 175 3.2 16.1 0.00 0.00 0.00 24 1016.1
20260507130204 26 177 3.2 16.1 0.00 0.00 0.00 23 1016.2
20260507130125 26 173 3.2 16.1 0.00 0.00 0.00 24 1016.3
20260507130004 26 175 3.2 16.1 0.00 0.00 0.00 24 1016.3
20260507125904 26 174 3.2 16.1 0.00 0.00 0.00 24 1016.2
20260507125825 26 175 3.2 16.1 0.00 0.00 0.00 23 1016.3
20260507125704 26 176 3.2 16.1 0.00 0.00 0.00 23 1016.3
20260507125604 26 176 3.2 16.1 0.00 0.00 0.00 23 1016.5
20260507125504 26 176 3.2 16.1 0.00 0.00 0.00 24 1016.5
20260507125404 26 175 3.2 16.1 0.00 0.00 0.00 24 1016.5
20260507125306 26 174 3.2 16.1 0.00 0.00 0.00 24 1016.4
20260507125204 26 172 3.2 16.1 0.00 0.00 0.00 24 1016.5
20260507125104 26 174 3.2 14.5 0.00 0.00 0.00 23 1016.3
20260507125004 26 175 3.2 14.5 0.00 0.00 0.00 24 1016.3
20260507124904 26 177 3.2 14.5 0.00 0.00 0.00 23 1016.4
20260507124804 26 179 3.2 12.9 0.00 0.00 0.00 25 1016.6
20260507124704 26 181 1.6 12.9 0.00 0.00 0.00 24 1016.5
20260507124604 26 180 1.6 12.9 0.00 0.00 0.00 24 1016.4
20260507124504 26 178 3.2 12.9 0.00 0.00 0.00 24 1016.6
20260507124404 26 178 3.2 12.9 0.00 0.00 0.00 25 1016.4
20260507124304 26 185 3.2 17.7 0.00 0.00 0.00 24 1016.7
20260507124204 26 189 3.2 17.7 0.00 0.00 0.00 24 1016.6
20260507124104 26 193 3.2 17.7 0.00 0.00 0.00 25 1016.5
20260507124004 26 192 3.2 17.7 0.00 0.00 0.00 23 1016.7
20260507123904 26 188 3.2 17.7 0.00 0.00 0.00 23 1016.6
20260507123804 26 187 3.2 17.7 0.00 0.00 0.00 24 1016.5
20260507123704 25 186 3.2 17.7 0.00 0.00 0.00 24 1016.4
20260507123604 25 184 3.2 17.7 0.00 0.00 0.00 25 1016.7
20260507123504 25 185 3.2 17.7 0.00 0.00 0.00 24 1016.5
20260507123404 25 187 3.2 17.7 0.00 0.00 0.00 24 1016.8
20260507123305 26 179 3.2 16.1 0.00 0.00 0.00 24 1016.6
20260507123225 26 169 3.2 16.1 0.00 0.00 0.00 24 1016.6
20260507123104 26 169 3.2 16.1 0.00 0.00 0.00 24 1016.8
20260507123004 26 171 3.2 16.1 0.00 0.00 0.00 24 1016.6
20260507122904 26 172 3.2 16.1 0.00 0.00 0.00 24 1016.6
20260507122804 26 173 3.2 16.1 0.00 0.00 0.00 23 1016.6
20260507122705 26 171 3.2 16.1 0.00 0.00 0.00 24 1016.4
20260507122604 26 174 3.2 16.1 0.00 0.00 0.00 24 1016.4
20260507122504 26 173 3.2 16.1 0.00 0.00 0.00 24 1016.5
20260507122404 26 172 3.2 12.9 0.00 0.00 0.00 24 1016.5
20260507122307 26 182 3.2 12.9 0.00 0.00 0.00 23 1016.7
20260507122204 26 184 3.2 14.5 0.00 0.00 0.00 25 1016.8
20260507122104 26 185 3.2 14.5 0.00 0.00 0.00 24 1016.6
20260507122004 26 184 3.2 14.5 0.00 0.00 0.00 24 1016.4
20260507121904 26 188 3.2 14.5 0.00 0.00 0.00 24 1016.4
20260507121804 26 183 3.2 14.5 0.00 0.00 0.00 24 1016.7
20260507121704 26 180 3.2 14.5 0.00 0.00 0.00 25 1016.7
20260507121604 26 179 3.2 14.5 0.00 0.00 0.00 24 1016.6
20260507121525 26 182 3.2 14.5 0.00 0.00 0.00 24 1016.8
20260507121404 26 183 3.2 14.5 0.00 0.00 0.00 24 1016.8
20260507121325 26 179 3.2 14.5 0.00 0.00 0.00 25 1016.7
20260507121204 26 184 3.2 14.5 0.00 0.00 0.00 23 1016.8
20260507121104 26 185 3.2 14.5 0.00 0.00 0.00 24 1017.0
20260507121004 26 185 3.2 14.5 0.00 0.00 0.00 24 1016.7
20260507120904 26 180 3.2 14.5 0.00 0.00 0.00 24 1016.7
20260507120804 26 180 3.2 14.5 0.00 0.00 0.00 24 1016.8
20260507120725 26 181 3.2 14.5 0.00 0.00 0.00 23 1016.7
20260507120625 26 185 3.2 14.5 0.00 0.00 0.00 24 1016.8
20260507120504 26 182 3.2 14.5 0.00 0.00 0.00 24 1016.5
20260507120425 26 183 3.2 14.5 0.00 0.00 0.00 25 1017.0
20260507120304 26 185 3.2 14.5 0.00 0.00 0.00 24 1016.7
20260507120225 26 181 3.2 14.5 0.00 0.00 0.00 23 1016.8
20260507120104 26 181 1.6 11.3 0.00 0.00 0.00 23 1016.8
20260507120025 26 179 1.6 11.3 0.00 0.00 0.00 24 1016.7
20260507115904 26 190 1.6 14.5 0.00 0.00 0.00 24 1016.9
20260507115804 26 198 1.6 14.5 0.00 0.00 0.00 24 1016.9
20260507115704 26 198 1.6 14.5 0.00 0.00 0.00 24 1016.8
20260507115604 26 191 3.2 14.5 0.00 0.00 0.00 24 1016.7
20260507115504 26 192 3.2 14.5 0.00 0.00 0.00 24 1016.7
20260507115404 26 191 3.2 14.5 0.00 0.00 0.00 23 1016.9
20260507115307 26 188 3.2 14.5 0.00 0.00 0.00 24 1016.8
20260507115204 26 187 3.2 14.5 0.00 0.00 0.00 24 1016.9
20260507115125 26 184 3.2 14.5 0.00 0.00 0.00 24 1016.8
20260507115004 26 188 3.2 14.5 0.00 0.00 0.00 24 1016.9
20260507114925 26 185 3.2 14.5 0.00 0.00 0.00 26 1017.1
20260507114804 26 181 3.2 14.5 0.00 0.00 0.00 25 1016.9
20260507114704 26 179 3.2 14.5 0.00 0.00 0.00 25 1016.9
20260507114604 26 182 3.2 14.5 0.00 0.00 0.00 25 1016.8
20260507114504 26 180 3.2 14.5 0.00 0.00 0.00 25 1016.9
20260507114404 26 180 3.2 14.5 0.00 0.00 0.00 26 1017.0
20260507114304 26 187 3.2 14.5 0.00 0.00 0.00 26 1017.1
20260507114204 26 184 3.2 16.1 0.00 0.00 0.00 25 1017.0
20260507114104 26 178 3.2 16.1 0.00 0.00 0.00 25 1017.1
20260507114004 26 176 3.2 16.1 0.00 0.00 0.00 26 1017.0
20260507113904 26 170 3.2 16.1 0.00 0.00 0.00 25 1016.9
20260507113804 26 179 3.2 16.1 0.00 0.00 0.00 25 1016.7
20260507113725 26 181 3.2 16.1 0.00 0.00 0.00 25 1016.9
20260507113604 26 183 3.2 16.1 0.00 0.00 0.00 26 1016.9
20260507113504 26 184 3.2 16.1 0.00 0.00 0.00 26 1016.9
20260507113404 26 183 3.2 16.1 0.00 0.00 0.00 26 1016.7
20260507113325 26 181 3.2 16.1 0.00 0.00 0.00 25 1017.1
20260507113225 26 178 3.2 16.1 0.00 0.00 0.00 25 1016.9
20260507113125 26 185 3.2 16.1 0.00 0.00 0.00 25 1017.1
20260507113004 26 195 1.6 16.1 0.00 0.00 0.00 26 1016.9
20260507112904 26 202 1.6 16.1 0.00 0.00 0.00 25 1016.9
20260507112804 26 196 1.6 16.1 0.00 0.00 0.00 25 1016.8
20260507112704 26 189 1.6 14.5 0.00 0.00 0.00 25 1016.9
20260507112625 26 189 1.6 14.5 0.00 0.00 0.00 24 1017.0
20260507112504 26 185 1.6 14.5 0.00 0.00 0.00 24 1017.1
20260507112404 26 183 1.6 14.5 0.00 0.00 0.00 24 1017.0
20260507112306 26 182 1.6 14.5 0.00 0.00 0.00 25 1016.9
20260507112204 26 179 1.6 14.5 0.00 0.00 0.00 25 1016.9
20260507112104 26 176 1.6 14.5 0.00 0.00 0.00 25 1017.0
20260507112004 26 173 3.2 14.5 0.00 0.00 0.00 25 1017.1
20260507111905 26 172 3.2 14.5 0.00 0.00 0.00 26 1016.8
20260507111804 26 168 3.2 14.5 0.00 0.00 0.00 25 1017.0
20260507111704 26 168 3.2 14.5 0.00 0.00 0.00 25 1017.1
20260507111604 26 169 3.2 14.5 0.00 0.00 0.00 25 1016.8
20260507111506 26 169 3.2 16.1 0.00 0.00 0.00 25 1017.1
20260507111425 26 170 3.2 16.1 0.00 0.00 0.00 25 1016.8
20260507111304 26 171 3.2 16.1 0.00 0.00 0.00 25 1016.9
20260507111204 26 177 3.2 16.1 0.00 0.00 0.00 25 1017.0
20260507111104 26 179 3.2 17.7 0.00 0.00 0.00 25 1017.2
20260507111004 26 188 3.2 17.7 0.00 0.00 0.00 24 1017.1
20260507110904 26 188 3.2 17.7 0.00 0.00 0.00 25 1017.0
20260507110804 26 191 3.2 17.7 0.00 0.00 0.00 24 1016.9
20260507110725 26 191 3.2 17.7 0.00 0.00 0.00 23 1016.8
20260507110604 26 197 3.2 17.7 0.00 0.00 0.00 24 1017.0
20260507110504 26 201 3.2 17.7 0.00 0.00 0.00 24 1017.1
20260507110425 26 203 1.6 17.7 0.00 0.00 0.00 26 1016.9
20260507110304 26 194 3.2 17.7 0.00 0.00 0.00 25 1016.7
20260507110204 26 190 3.2 17.7 0.00 0.00 0.00 25 1017.0
20260507110104 26 187 3.2 14.5 0.00 0.00 0.00 25 1017.0
20260507110004 26 183 3.2 14.5 0.00 0.00 0.00 24 1016.8
20260507105904 26 184 3.2 16.1 0.00 0.00 0.00 25 1017.0
20260507105804 26 183 3.2 16.1 0.00 0.00 0.00 26 1016.9
20260507105704 26 180 3.2 16.1 0.00 0.00 0.00 25 1017.0
20260507105604 26 173 3.2 16.1 0.00 0.00 0.00 24 1016.8
20260507105504 26 171 3.2 16.1 0.00 0.00 0.00 24 1016.9
20260507105425 26 171 3.2 16.1 0.00 0.00 0.00 24 1017.1
20260507105306 26 172 3.2 16.1 0.00 0.00 0.00 24 1017.0
20260507105204 26 178 3.2 16.1 0.00 0.00 0.00 25 1017.0
20260507105104 26 188 3.2 17.7 0.00 0.00 0.00 25 1016.7
20260507105025 26 187 3.2 17.7 0.00 0.00 0.00 26 1016.9
20260507104904 25 192 4.8 17.7 0.00 0.00 0.00 26 1016.9
20260507104804 25 194 4.8 17.7 0.00 0.00 0.00 25 1017.0
20260507104704 25 197 4.8 17.7 0.00 0.00 0.00 25 1017.0
20260507104625 25 195 4.8 17.7 0.00 0.00 0.00 25 1017.1
20260507104525 25 198 4.8 17.7 0.00 0.00 0.00 26 1016.8
20260507104404 25 200 4.8 17.7 0.00 0.00 0.00 25 1017.2
20260507104305 26 202 3.2 17.7 0.00 0.00 0.00 26 1017.2
20260507104204 26 202 3.2 17.7 0.00 0.00 0.00 26 1017.0
20260507104125 26 195 3.2 17.7 0.00 0.00 0.00 25 1016.9
20260507104004 26 192 3.2 17.7 0.00 0.00 0.00 25 1016.9
20260507103925 26 188 3.2 17.7 0.00 0.00 0.00 25 1016.9
20260507103804 26 184 1.6 12.9 0.00 0.00 0.00 26 1017.1
20260507103704 26 182 3.2 12.9 0.00 0.00 0.00 25 1016.8
20260507103604 26 182 1.6 12.9 0.00 0.00 0.00 26 1017.0
20260507103504 26 180 3.2 12.9 0.00 0.00 0.00 26 1017.0
20260507103404 26 182 3.2 12.9 0.00 0.00 0.00 26 1017.1
20260507103304 26 186 3.2 17.7 0.00 0.00 0.00 26 1017.0
20260507103204 26 186 3.2 17.7 0.00 0.00 0.00 25 1017.2
20260507103104 26 185 3.2 17.7 0.00 0.00 0.00 25 1017.2
20260507103025 26 179 3.2 17.7 0.00 0.00 0.00 25 1017.0
20260507102904 26 187 3.2 17.7 0.00 0.00 0.00 25 1017.1
20260507102804 25 185 3.2 17.7 0.00 0.00 0.00 26 1016.9
20260507102704 25 184 3.2 17.7 0.00 0.00 0.00 26 1017.3
20260507102625 25 184 3.2 17.7 0.00 0.00 0.00 25 1017.1
20260507102504 25 184 3.2 17.7 0.00 0.00 0.00 25 1017.2
20260507102404 26 179 3.2 17.7 0.00 0.00 0.00 26 1017.2
20260507102306 26 165 3.2 11.3 0.00 0.00 0.00 26 1017.0
20260507102204 26 162 3.2 11.3 0.00 0.00 0.00 26 1017.2
20260507102104 26 162 3.2 11.3 0.00 0.00 0.00 26 1016.9
20260507102025 26 165 3.2 16.1 0.00 0.00 0.00 28 1017.2
20260507101904 26 159 3.2 16.1 0.00 0.00 0.00 27 1017.0
20260507101825 26 162 3.2 16.1 0.00 0.00 0.00 28 1017.2
20260507101725 26 164 3.2 16.1 0.00 0.00 0.00 27 1017.2
20260507101604 26 168 3.2 16.1 0.00 0.00 0.00 29 1017.2
20260507101504 26 168 3.2 16.1 0.00 0.00 0.00 27 1017.5
20260507101404 26 168 3.2 16.1 0.00 0.00 0.00 26 1017.0
20260507101304 25 178 3.2 16.1 0.00 0.00 0.00 27 1017.2
20260507101204 25 175 3.2 16.1 0.00 0.00 0.00 27 1017.3
20260507101104 25 175 3.2 16.1 0.00 0.00 0.00 27 1017.3
20260507101004 25 179 3.2 12.9 0.00 0.00 0.00 28 1017.4
20260507100905 25 176 3.2 12.9 0.00 0.00 0.00 28 1017.1
20260507100825 26 171 3.2 12.9 0.00 0.00 0.00 27 1017.1
20260507100704 26 174 3.2 12.9 0.00 0.00 0.00 27 1017.1
20260507100604 26 170 3.2 12.9 0.00 0.00 0.00 27 1017.1
20260507100504 25 175 3.2 12.9 0.00 0.00 0.00 27 1017.3
20260507100425 25 174 3.2 12.9 0.00 0.00 0.00 27 1017.2
20260507100325 25 177 3.2 12.9 0.00 0.00 0.00 27 1017.3
20260507100204 25 184 3.2 12.9 0.00 0.00 0.00 27 1017.4
20260507100104 25 185 3.2 12.9 0.00 0.00 0.00 26 1017.2
20260507100004 25 188 3.2 14.5 0.00 0.00 0.00 26 1017.3
20260507095904 25 193 3.2 14.5 0.00 0.00 0.00 26 1017.3
20260507095825 25 196 3.2 20.9 0.00 0.00 0.00 27 1017.3
20260507095604 25 207 4.8 20.9 0.00 0.00 0.00 27 1017.1
20260507095504 25 205 4.8 20.9 0.00 0.00 0.00 27 1017.2
20260507095404 25 210 4.8 20.9 0.00 0.00 0.00 27 1017.2
20260507095306 25 203 3.2 20.9 0.00 0.00 0.00 26 1017.3
20260507095204 25 202 3.2 20.9 0.00 0.00 0.00 27 1017.4
20260507095104 25 201 4.8 20.9 0.00 0.00 0.00 27 1017.3
20260507095004 25 200 3.2 20.9 0.00 0.00 0.00 27 1017.3
20260507094925 25 196 3.2 20.9 0.00 0.00 0.00 26 1017.5
20260507094804 25 188 3.2 14.5 0.00 0.00 0.00 27 1017.4
20260507094704 25 180 3.2 16.1 0.00 0.00 0.00 26 1017.5
20260507094604 25 178 3.2 16.1 0.00 0.00 0.00 27 1017.3
20260507094504 25 182 3.2 16.1 0.00 0.00 0.00 27 1017.4
20260507094425 25 181 3.2 16.1 0.00 0.00 0.00 27 1017.4
20260507094304 25 176 3.2 16.1 0.00 0.00 0.00 27 1017.2
20260507094225 25 175 3.2 16.1 0.00 0.00 0.00 27 1017.2
20260507094104 25 177 4.8 16.1 0.00 0.00 0.00 27 1017.3
20260507094004 25 179 4.8 16.1 0.00 0.00 0.00 27 1017.3
20260507093925 25 182 4.8 16.1 0.00 0.00 0.00 28 1017.4
20260507093804 25 185 4.8 16.1 0.00 0.00 0.00 27 1017.3
20260507093704 25 192 3.2 16.1 0.00 0.00 0.00 28 1017.3
20260507093604 25 189 3.2 16.1 0.00 0.00 0.00 27 1017.3
20260507093504 25 183 4.8 16.1 0.00 0.00 0.00 28 1017.3
20260507093404 25 182 4.8 16.1 0.00 0.00 0.00 28 1017.2
20260507093304 25 192 4.8 16.1 0.00 0.00 0.00 27 1017.4
20260507093204 25 198 4.8 16.1 0.00 0.00 0.00 27 1017.5
20260507093104 25 199 4.8 16.1 0.00 0.00 0.00 27 1017.6
20260507093025 25 196 3.2 16.1 0.00 0.00 0.00 28 1017.3
20260507092904 25 190 3.2 14.5 0.00 0.00 0.00 28 1017.3
20260507092804 25 189 3.2 14.5 0.00 0.00 0.00 27 1017.4
20260507092704 25 184 3.2 14.5 0.00 0.00 0.00 28 1017.5
20260507092604 25 184 3.2 14.5 0.00 0.00 0.00 27 1017.2
20260507092504 25 190 3.2 14.5 0.00 0.00 0.00 28 1017.2
20260507092404 25 194 3.2 14.5 0.00 0.00 0.00 27 1017.2
20260507092325 25 185 3.2 14.5 0.00 0.00 0.00 27 1017.3
20260507092225 25 183 1.6 14.5 0.00 0.00 0.00 28 1017.3
20260507092104 25 179 3.2 14.5 0.00 0.00 0.00 27 1017.3
20260507092004 25 179 3.2 14.5 0.00 0.00 0.00 27 1017.1
20260507091925 25 178 3.2 14.5 0.00 0.00 0.00 27 1017.4
20260507091804 25 180 3.2 14.5 0.00 0.00 0.00 28 1017.3
20260507091704 25 178 3.2 14.5 0.00 0.00 0.00 28 1017.2
20260507091604 25 175 3.2 14.5 0.00 0.00 0.00 28 1017.3
20260507091504 25 173 3.2 14.5 0.00 0.00 0.00 27 1017.4
20260507091404 25 167 3.2 14.5 0.00 0.00 0.00 27 1017.4
20260507091325 25 164 3.2 14.5 0.00 0.00 0.00 28 1017.6
20260507091204 25 163 3.2 14.5 0.00 0.00 0.00 28 1017.5
20260507091104 25 166 3.2 14.5 0.00 0.00 0.00 28 1017.4
20260507091025 25 170 3.2 14.5 0.00 0.00 0.00 27 1017.6
20260507090904 25 170 3.2 14.5 0.00 0.00 0.00 27 1017.3
20260507090804 25 170 3.2 14.5 0.00 0.00 0.00 28 1017.4
20260507090725 25 167 3.2 14.5 0.00 0.00 0.00 29 1017.4
20260507090604 25 174 3.2 14.5 0.00 0.00 0.00 27 1017.4
20260507090504 25 177 3.2 14.5 0.00 0.00 0.00 29 1017.5
20260507090404 25 180 3.2 14.5 0.00 0.00 0.00 29 1017.5
20260507090325 25 183 3.2 12.9 0.00 0.00 0.00 28 1017.2
20260507090204 25 194 3.2 22.5 0.00 0.00 0.00 28 1017.4
20260507090105 25 198 3.2 22.5 0.00 0.00 0.00 28 1017.4
20260507090005 25 200 3.2 22.5 0.00 0.00 0.00 28 1017.4
20260507085904 25 201 1.6 22.5 0.00 0.00 0.00 27 1017.1
20260507085804 25 202 1.6 22.5 0.00 0.00 0.00 28 1017.4
20260507085704 25 205 3.2 22.5 0.00 0.00 0.00 28 1017.1
20260507085604 24 196 3.2 22.5 0.00 0.00 0.00 29 1017.2
20260507085504 24 191 3.2 22.5 0.00 0.00 0.00 29 1017.3
20260507085425 24 190 3.2 22.5 0.00 0.00 0.00 30 1017.4
20260507085306 25 184 3.2 22.5 0.00 0.00 0.00 29 1017.3
20260507085225 25 172 3.2 22.5 0.00 0.00 0.00 28 1017.4
20260507085104 25 164 3.2 12.9 0.00 0.00 0.00 28 1017.5
20260507085025 25 165 3.2 12.9 0.00 0.00 0.00 28 1017.3
20260507084904 24 171 3.2 16.1 0.00 0.00 0.00 29 1017.2
20260507084804 24 170 3.2 16.1 0.00 0.00 0.00 29 1017.2
20260507084704 24 165 4.8 16.1 0.00 0.00 0.00 29 1017.3
20260507084604 24 166 4.8 16.1 0.00 0.00 0.00 29 1017.6
20260507084504 24 163 4.8 16.1 0.00 0.00 0.00 29 1017.5
20260507084404 24 161 4.8 16.1 0.00 0.00 0.00 28 1017.4
20260507084325 24 161 4.8 16.1 0.00 0.00 0.00 29 1017.4
20260507084204 24 167 3.2 16.1 0.00 0.00 0.00 29 1017.4
20260507084104 24 168 3.2 16.1 0.00 0.00 0.00 29 1017.5
20260507084025 24 166 4.8 16.1 0.00 0.00 0.00 29 1017.4
20260507083904 24 162 3.2 12.9 0.00 0.00 0.00 29 1017.5
20260507083804 24 165 3.2 14.5 0.00 0.00 0.00 29 1017.4
20260507083704 24 167 3.2 14.5 0.00 0.00 0.00 28 1017.2
20260507083604 24 170 3.2 14.5 0.00 0.00 0.00 29 1017.4
20260507083504 24 177 3.2 14.5 0.00 0.00 0.00 29 1017.5
20260507083404 24 181 1.6 14.5 0.00 0.00 0.00 28 1017.4
20260507083325 24 180 3.2 14.5 0.00 0.00 0.00 29 1017.5
20260507083204 25 179 3.2 14.5 0.00 0.00 0.00 28 1017.5
20260507083125 25 179 3.2 14.5 0.00 0.00 0.00 28 1017.6
20260507083004 25 177 3.2 14.5 0.00 0.00 0.00 29 1017.5
20260507082904 25 176 3.2 14.5 0.00 0.00 0.00 29 1017.5
20260507082804 24 176 3.2 12.9 0.00 0.00 0.00 29 1017.5
20260507082704 24 177 3.2 12.9 0.00 0.00 0.00 29 1017.3
20260507082625 24 177 3.2 12.9 0.00 0.00 0.00 29 1017.4
20260507082504 24 173 3.2 12.9 0.00 0.00 0.00 30 1017.4
20260507082404 24 175 3.2 12.9 0.00 0.00 0.00 29 1017.5
20260507082306 25 172 3.2 12.9 0.00 0.00 0.00 29 1017.4
20260507082204 25 173 3.2 12.9 0.00 0.00 0.00 29 1017.3
20260507082104 25 174 3.2 12.9 0.00 0.00 0.00 30 1017.4
20260507082004 25 175 3.2 14.5 0.00 0.00 0.00 29 1017.2
20260507081904 25 175 3.2 14.5 0.00 0.00 0.00 29 1017.4
20260507081804 25 174 3.2 14.5 0.00 0.00 0.00 29 1017.0
20260507081725 24 175 3.2 14.5 0.00 0.00 0.00 30 1017.4
20260507081604 24 176 3.2 14.5 0.00 0.00 0.00 30 1017.4
20260507081525 24 176 3.2 14.5 0.00 0.00 0.00 29 1017.3
20260507081404 24 170 3.2 14.5 0.00 0.00 0.00 29 1017.2
20260507081325 24 172 3.2 14.5 0.00 0.00 0.00 28 1017.3
20260507081204 24 169 1.6 14.5 0.00 0.00 0.00 30 1017.4
20260507081104 24 168 3.2 14.5 0.00 0.00 0.00 29 1017.4
20260507081004 24 169 3.2 14.5 0.00 0.00 0.00 29 1017.6
20260507080904 24 171 1.6 14.5 0.00 0.00 0.00 30 1017.6
20260507080825 24 171 1.6 14.5 0.00 0.00 0.00 31 1017.6
20260507080704 24 166 1.6 14.5 0.00 0.00 0.00 30 1017.5
20260507080604 24 168 1.6 11.3 0.00 0.00 0.00 29 1017.3
20260507080504 24 170 1.6 11.3 0.00 0.00 0.00 30 1017.3
20260507080404 24 170 1.6 11.3 0.00 0.00 0.00 30 1017.5
20260507080304 24 170 1.6 11.3 0.00 0.00 0.00 30 1017.4
20260507080204 24 171 1.6 11.3 0.00 0.00 0.00 29 1017.3
20260507080104 24 176 1.6 11.3 0.00 0.00 0.00 29 1017.5
20260507080004 24 173 1.6 11.3 0.00 0.00 0.00 30 1017.5
20260507075925 24 173 1.6 11.3 0.00 0.00 0.00 30 1017.5
20260507075804 24 181 1.6 12.9 0.00 0.00 0.00 30 1017.4
20260507075704 24 184 1.6 12.9 0.00 0.00 0.00 29 1017.3
20260507075604 24 187 1.6 12.9 0.00 0.00 0.00 29 1017.3
20260507075504 24 194 1.6 12.9 0.00 0.00 0.00 30 1017.3
20260507075404 23 193 1.6 12.9 0.00 0.00 0.00 30 1017.4
20260507075306 23 193 1.6 12.9 0.00 0.00 0.00 30 1017.2
20260507075204 23 197 3.2 12.9 0.00 0.00 0.00 29 1017.3
20260507075104 23 198 3.2 12.9 0.00 0.00 0.00 30 1017.3
20260507075004 23 201 3.2 17.7 0.00 0.00 0.00 30 1017.4
20260507074904 23 195 3.2 17.7 0.00 0.00 0.00 30 1017.5
20260507074804 23 192 3.2 17.7 0.00 0.00 0.00 30 1017.7
20260507074704 23 190 3.2 17.7 0.00 0.00 0.00 30 1017.5
20260507074604 23 189 3.2 17.7 0.00 0.00 0.00 30 1017.4
20260507074504 23 186 3.2 17.7 0.00 0.00 0.00 30 1017.3
20260507074404 23 192 3.2 17.7 0.00 0.00 0.00 30 1017.5
20260507074304 23 192 3.2 17.7 0.00 0.00 0.00 30 1017.6
20260507074204 23 190 3.2 17.7 0.00 0.00 0.00 30 1017.4
20260507074104 23 190 3.2 17.7 0.00 0.00 0.00 30 1017.3
20260507074004 23 193 3.2 12.9 0.00 0.00 0.00 30 1017.5
20260507073904 23 197 3.2 12.9 0.00 0.00 0.00 31 1017.6
20260507073804 23 198 3.2 12.9 0.00 0.00 0.00 29 1017.5
20260507073704 23 200 3.2 12.9 0.00 0.00 0.00 30 1017.3
20260507073625 23 202 1.6 12.9 0.00 0.00 0.00 31 1017.3
20260507073504 23 206 1.6 12.9 0.00 0.00 0.00 30 1017.3
20260507073404 23 201 1.6 12.9 0.00 0.00 0.00 30 1017.6